KC5DAQ-27 Weather Reports


Display with metric or nautical units.
time (UTC)temp
F
wind
direction
speed
MPH
gust
MPH
rain 1hr
in
rain 24hr
in
rain mn
in
humidity
%
barometer
mb
20260509222704 89 0 2.0 3.0 0.00 0.00 0.00 67 998.9
20260509222603 89 0 2.0 3.0 0.00 0.00 0.00 67 999.0
20260509222503 89 0 2.0 3.0 0.00 0.00 0.00 67 999.0
20260509222402 90 0 2.0 3.0 0.00 0.00 0.00 67 998.9
20260509222306 90 0 1.0 3.0 0.00 0.00 0.00 67 998.9
20260509222202 90 0 0.0 3.0 0.00 0.00 0.00 67 998.9
20260509222102 90 0 0.0 3.0 0.00 0.00 0.00 67 999.0
20260509222004 90 0 0.0 3.0 0.00 0.00 0.00 67 999.0
20260509221903 89 0 0.0 3.0 0.00 0.00 0.00 67 999.0
20260509221802 89 0 0.0 3.0 0.00 0.00 0.00 67 999.0
20260509221703 89 51 1.0 3.0 0.00 0.00 0.00 67 999.0
20260509221602 89 45 2.0 3.0 0.00 0.00 0.00 67 998.9
20260509221503 89 45 1.0 3.0 0.00 0.00 0.00 67 999.0
20260509221402 89 47 1.0 4.0 0.00 0.00 0.00 68 998.9
20260509221304 89 39 1.0 4.0 0.00 0.00 0.00 68 998.9
20260509221202 89 38 1.0 4.0 0.00 0.00 0.00 67 998.9
20260509221101 89 39 1.0 6.0 0.00 0.00 0.00 68 998.9
20260509220958 89 331 1.0 7.0 0.00 0.00 0.00 68 998.9
20260509220857 89 331 1.0 7.0 0.00 0.00 0.00 67 998.9
20260509220754 89 0 2.0 7.0 0.00 0.00 0.00 67 998.9
20260509220654 89 331 2.0 7.0 0.00 0.00 0.00 67 998.8
20260509220553 89 326 3.0 7.0 0.00 0.00 0.00 66 998.9
20260509220451 89 0 3.0 7.0 0.00 0.00 0.00 67 998.9
20260509220349 89 0 3.0 7.0 0.00 0.00 0.00 67 999.0
20260509220249 89 0 4.0 7.0 0.00 0.00 0.00 66 999.0
20260509220150 89 0 5.0 7.0 0.00 0.00 0.00 65 998.9
20260509220050 90 0 5.0 7.0 0.00 0.00 0.00 64 999.0
20260509215950 90 0 5.0 6.0 0.00 0.00 0.00 65 999.0
20260509215849 90 0 5.0 6.0 0.00 0.00 0.00 65 998.9
20260509215750 90 0 5.0 6.0 0.00 0.00 0.00 66 999.0
20260509215650 90 0 4.0 6.0 0.00 0.00 0.00 66 999.0
20260509215549 90 0 2.0 6.0 0.00 0.00 0.00 67 999.0
20260509215450 90 0 2.0 6.0 0.00 0.00 0.00 67 999.0
20260509215350 90 0 4.0 6.0 0.00 0.00 0.00 66 999.0
20260509215249 90 0 4.0 9.0 0.00 0.00 0.00 66 999.0
20260509215149 90 0 3.0 9.0 0.00 0.00 0.00 66 999.0
20260509215050 89 0 2.0 9.0 0.00 0.00 0.00 66 999.0
20260509214949 89 0 2.0 9.0 0.00 0.00 0.00 65 998.9
20260509214849 89 0 4.0 9.0 0.00 0.00 0.00 66 998.9
20260509214749 89 0 3.0 9.0 0.00 0.00 0.00 66 998.9
20260509214650 89 0 3.0 9.0 0.00 0.00 0.00 66 998.9
20260509214549 89 0 4.0 9.0 0.00 0.00 0.00 66 998.8
20260509214449 89 0 6.0 9.0 0.00 0.00 0.00 66 998.9
20260509214351 90 0 6.0 9.0 0.00 0.00 0.00 66 998.9
20260509214251 90 0 6.0 9.0 0.00 0.00 0.00 66 998.9
20260509214149 90 0 5.0 9.0 0.00 0.00 0.00 66 998.9
20260509214050 90 0 5.0 9.0 0.00 0.00 0.00 66 999.0
20260509213949 90 0 4.0 9.0 0.00 0.00 0.00 66 998.9
20260509213849 90 0 5.0 9.0 0.00 0.00 0.00 65 998.9
20260509213750 90 0 4.0 9.0 0.00 0.00 0.00 64 999.0
20260509213650 90 0 4.0 9.0 0.00 0.00 0.00 64 999.0
20260509213549 90 0 5.0 9.0 0.00 0.00 0.00 64 998.9
20260509213449 91 0 5.0 9.0 0.00 0.00 0.00 64 999.0
20260509213349 91 0 5.0 9.0 0.00 0.00 0.00 64 999.0
20260509213250 91 0 4.0 6.0 0.00 0.00 0.00 65 999.0
20260509213149 91 0 5.0 6.0 0.00 0.00 0.00 64 999.0
20260509213049 91 275 4.0 6.0 0.00 0.00 0.00 63 998.9
20260509212950 91 0 2.0 6.0 0.00 0.00 0.00 63 998.9
20260509212849 91 282 4.0 6.0 0.00 0.00 0.00 63 998.9
20260509212747 91 0 4.0 6.0 0.00 0.00 0.00 63 998.9
20260509212646 91 293 2.0 5.0 0.00 0.00 0.00 64 998.9
20260509212544 91 282 1.0 4.0 0.00 0.00 0.00 64 998.9
20260509212442 91 282 0.0 4.0 0.00 0.00 0.00 64 999.0
20260509212341 91 0 0.0 5.0 0.00 0.00 0.00 64 999.0
20260509212239 91 0 2.0 5.0 0.00 0.00 0.00 64 999.0
20260509212138 91 285 1.0 5.0 0.00 0.00 0.00 63 999.0
20260509212036 91 285 0.0 5.0 0.00 0.00 0.00 64 999.0
20260509211934 91 286 0.0 5.0 0.00 0.00 0.00 63 999.1
20260509211833 91 286 0.0 5.0 0.00 0.00 0.00 63 999.1
20260509211732 91 288 1.0 5.0 0.00 0.00 0.00 62 999.1
20260509211631 91 288 2.0 5.0 0.00 0.00 0.00 62 999.1
20260509211531 91 288 3.0 5.0 0.00 0.00 0.00 63 999.1
20260509211432 92 288 4.0 5.0 0.00 0.00 0.00 62 999.2
20260509211331 92 309 3.0 5.0 0.00 0.00 0.00 63 999.1
20260509211231 92 293 3.0 5.0 0.00 0.00 0.00 63 999.2
20260509211130 92 350 2.0 5.0 0.00 0.00 0.00 64 999.1
20260509211032 92 274 1.0 4.0 0.00 0.00 0.00 64 999.2
20260509210931 92 148 0.0 0.0 0.00 0.00 0.00 63 999.1
20260509210831 91 148 0.0 0.0 0.00 0.00 0.00 63 999.1
20260509210732 92 148 0.0 0.0 0.00 0.00 0.00 64 999.1
20260509210631 91 155 0.0 0.0 0.00 0.00 0.00 64 999.1
20260509210531 91 155 0.0 0.0 0.00 0.00 0.00 65 999.1
20260509210433 91 157 0.0 0.0 0.00 0.00 0.00 65 999.1
20260509210331 91 157 0.0 0.0 0.00 0.00 0.00 66 999.0
20260509210232 91 157 0.0 2.0 0.00 0.00 0.00 67 999.1
20260509210131 91 158 0.0 4.0 0.00 0.00 0.00 67 999.1
20260509210032 90 158 0.0 4.0 0.00 0.00 0.00 67 999.2
20260509205932 90 158 0.0 4.0 0.00 0.00 0.00 68 999.1
20260509205831 90 158 0.0 4.0 0.00 0.00 0.00 68 999.3
20260509205731 90 158 0.0 4.0 0.00 0.00 0.00 68 999.1
20260509205631 90 0 0.0 4.0 0.00 0.00 0.00 69 999.2
20260509205530 90 0 0.0 4.0 0.00 0.00 0.00 69 999.3
20260509205428 89 0 0.0 4.0 0.00 0.00 0.00 68 999.3
20260509205327 89 0 2.0 4.0 0.00 0.00 0.00 69 999.4
20260509205225 89 0 2.0 4.0 0.00 0.00 0.00 70 999.4
20260509205124 89 0 1.0 4.0 0.00 0.00 0.00 69 999.4
20260509205022 89 0 1.0 6.0 0.00 0.00 0.00 69 999.5
20260509204921 89 137 2.0 6.0 0.00 0.00 0.00 69 999.5
20260509204819 89 135 2.0 6.0 0.00 0.00 0.00 69 999.5
20260509204718 89 137 2.0 6.0 0.00 0.00 0.00 68 999.5
20260509204615 89 158 3.0 6.0 0.00 0.00 0.00 68 999.5
20260509204514 89 137 2.0 6.0 0.00 0.00 0.00 68 999.5
20260509204413 89 131 2.0 6.0 0.00 0.00 0.00 68 999.5
20260509204312 89 0 3.0 6.0 0.00 0.00 0.00 68 999.6
20260509204210 90 130 3.0 6.0 0.00 0.00 0.00 67 999.6
20260509204109 90 0 4.0 6.0 0.00 0.00 0.00 67 999.6
20260509204007 90 0 5.0 6.0 0.00 0.00 0.00 67 999.5
20260509203906 90 0 4.0 6.0 0.00 0.00 0.00 67 999.6
20260509203804 91 0 3.0 6.0 0.00 0.00 0.00 67 999.6
20260509203703 91 0 2.0 6.0 0.00 0.00 0.00 67 999.6
20260509203603 91 0 2.0 6.0 0.00 0.00 0.00 67 999.7
20260509203502 91 0 3.0 6.0 0.00 0.00 0.00 67 999.7
20260509203404 91 0 3.0 6.0 0.00 0.00 0.00 67 999.7
20260509203302 91 0 4.0 6.0 0.00 0.00 0.00 68 999.7
20260509203202 91 0 3.0 5.0 0.00 0.00 0.00 68 999.7
20260509203104 91 0 1.0 5.0 0.00 0.00 0.00 69 999.8
20260509203004 91 0 0.0 5.0 0.00 0.00 0.00 68 999.8
20260509202902 91 0 0.0 5.0 0.00 0.00 0.00 68 999.8
20260509202802 91 0 0.0 5.0 0.00 0.00 0.00 68 999.8
20260509202703 90 0 0.0 5.0 0.00 0.00 0.00 68 999.7
20260509202603 90 0 0.0 5.0 0.00 0.00 0.00 68 999.8
20260509202503 90 0 0.0 5.0 0.00 0.00 0.00 69 999.8
20260509202403 90 0 0.0 5.0 0.00 0.00 0.00 69 999.7
20260509202306 90 0 2.0 5.0 0.00 0.00 0.00 69 999.9
20260509202203 90 0 3.0 5.0 0.00 0.00 0.00 70 999.8
20260509202101 90 0 3.0 5.0 0.00 0.00 0.00 69 999.8
20260509202003 90 0 3.0 5.0 0.00 0.00 0.00 69 999.8
20260509201904 90 0 3.0 5.0 0.00 0.00 0.00 70 999.9
20260509201802 90 0 3.0 5.0 0.00 0.00 0.00 70 999.8
20260509201704 90 0 1.0 5.0 0.00 0.00 0.00 70 999.8
20260509201603 90 0 0.0 0.0 0.00 0.00 0.00 70 999.7
20260509201503 90 0 0.0 2.0 0.00 0.00 0.00 71 999.8
20260509201403 89 0 0.0 3.0 0.00 0.00 0.00 72 999.8
20260509201303 89 0 0.0 3.0 0.00 0.00 0.00 71 999.9
20260509201202 89 0 0.0 3.0 0.00 0.00 0.00 71 999.7
20260509201103 89 0 0.0 4.0 0.00 0.00 0.00 71 999.8
20260509201003 88 0 0.0 5.0 0.00 0.00 0.00 71 999.8
20260509200901 88 0 0.0 5.0 0.00 0.00 0.00 71 999.8
20260509200802 88 0 0.0 5.0 0.00 0.00 0.00 71 999.8
20260509200703 88 0 1.0 5.0 0.00 0.00 0.00 71 999.8
20260509200602 88 0 2.0 5.0 0.00 0.00 0.00 71 999.9
20260509200502 88 0 2.0 5.0 0.00 0.00 0.00 71 999.9
20260509200402 88 0 2.0 5.0 0.00 0.00 0.00 71 1000.0
20260509200303 88 0 3.0 5.0 0.00 0.00 0.00 71 1000.0
20260509200203 88 0 3.0 5.0 0.00 0.00 0.00 71 1000.0
20260509200103 88 0 2.0 5.0 0.00 0.00 0.00 71 1000.0
20260509200004 88 0 2.0 5.0 0.00 0.00 0.00 72 1000.1
20260509195902 88 0 3.0 5.0 0.00 0.00 0.00 72 1000.0
20260509195802 87 0 2.0 5.0 0.00 0.00 0.00 72 1000.0
20260509195704 87 0 2.0 5.0 0.00 0.00 0.00 72 1000.0
20260509195602 87 0 2.0 5.0 0.00 0.00 0.00 72 999.9
20260509195501 87 0 3.0 5.0 0.00 0.00 0.00 72 1000.0
20260509195402 87 0 3.0 5.0 0.00 0.00 0.00 72 1000.0
20260509195306 87 0 3.0 5.0 0.00 0.00 0.00 72 1000.0
20260509195203 87 0 4.0 9.0 0.00 0.00 0.00 72 1000.0
20260509195103 87 0 4.0 9.0 0.00 0.00 0.00 72 1000.0
20260509195003 87 0 3.0 9.0 0.00 0.00 0.00 72 1000.0
20260509194902 87 0 2.0 9.0 0.00 0.00 0.00 72 1000.0
20260509194802 87 0 2.0 9.0 0.00 0.00 0.00 71 1000.0
20260509194702 87 0 3.0 9.0 0.00 0.00 0.00 71 1000.1
20260509194603 87 0 2.0 9.0 0.00 0.00 0.00 71 1000.0
20260509194503 87 0 2.0 9.0 0.00 0.00 0.00 71 1000.1
20260509194402 88 0 4.0 9.0 0.00 0.00 0.00 70 1000.2
20260509194304 88 0 6.0 9.0 0.00 0.00 0.00 70 1000.1
20260509194203 88 0 4.0 9.0 0.00 0.00 0.00 70 1000.2
20260509194102 88 0 2.0 6.0 0.00 0.00 0.00 70 1000.2
20260509194002 88 0 3.0 5.0 0.00 0.00 0.00 70 1000.3
20260509193902 88 0 4.0 5.0 0.00 0.00 0.00 70 1000.3
20260509193802 89 0 4.0 5.0 0.00 0.00 0.00 69 1000.2
20260509193702 89 0 2.0 4.0 0.00 0.00 0.00 69 1000.3
20260509193603 89 0 0.0 3.0 0.00 0.00 0.00 70 1000.3
20260509193502 89 0 0.0 5.0 0.00 0.00 0.00 70 1000.3
20260509193402 89 0 0.0 5.0 0.00 0.00 0.00 70 1000.3
20260509193301 89 165 1.0 5.0 0.00 0.00 0.00 70 1000.2
20260509193202 89 0 1.0 5.0 0.00 0.00 0.00 70 1000.2
20260509193102 88 165 0.0 5.0 0.00 0.00 0.00 70 1000.2
20260509193002 88 165 1.0 5.0 0.00 0.00 0.00 70 1000.3
20260509192903 88 165 2.0 5.0 0.00 0.00 0.00 70 1000.3
20260509192802 88 169 2.0 5.0 0.00 0.00 0.00 71 1000.3
20260509192702 88 227 2.0 5.0 0.00 0.00 0.00 71 1000.3
20260509192603 88 227 2.0 9.0 0.00 0.00 0.00 71 1000.3
20260509192503 88 213 2.0 9.0 0.00 0.00 0.00 71 1000.3
20260509192402 88 210 2.0 9.0 0.00 0.00 0.00 71 1000.3
20260509192305 88 207 1.0 9.0 0.00 0.00 0.00 71 1000.3
20260509192203 88 206 1.0 9.0 0.00 0.00 0.00 71 1000.4
20260509192103 88 206 1.0 9.0 0.00 0.00 0.00 71 1000.3
20260509192002 88 237 3.0 9.0 0.00 0.00 0.00 72 1000.3
20260509191903 88 237 4.0 9.0 0.00 0.00 0.00 72 1000.5
20260509191802 88 186 5.0 9.0 0.00 0.00 0.00 70 1000.5
20260509191702 88 148 4.0 9.0 0.00 0.00 0.00 71 1000.5
20260509191602 88 131 2.0 6.0 0.00 0.00 0.00 70 1000.4
20260509191503 88 147 2.0 6.0 0.00 0.00 0.00 70 1000.5
20260509191403 88 168 2.0 6.0 0.00 0.00 0.00 70 1000.5
20260509191302 88 169 3.0 6.0 0.00 0.00 0.00 70 1000.5
20260509191204 88 178 5.0 6.0 0.00 0.00 0.00 70 1000.6
20260509191103 88 171 4.0 6.0 0.00 0.00 0.00 71 1000.6
20260509191001 88 240 3.0 5.0 0.00 0.00 0.00 71 1000.5
20260509190900 88 0 3.0 5.0 0.00 0.00 0.00 71 1000.6
20260509190758 88 0 1.0 5.0 0.00 0.00 0.00 72 1000.6
20260509190657 88 0 0.0 4.0 0.00 0.00 0.00 74 1000.5
20260509190554 87 0 1.0 4.0 0.00 0.00 0.00 73 1000.6
20260509190454 87 0 3.0 4.0 0.00 0.00 0.00 73 1000.6
20260509190352 87 0 2.0 4.0 0.00 0.00 0.00 72 1000.6
20260509190250 87 0 1.0 4.0 0.00 0.00 0.00 72 1000.6
20260509190149 87 0 2.0 5.0 0.00 0.00 0.00 72 1000.7
20260509190048 86 0 2.0 5.0 0.00 0.00 0.00 73 1000.7
20260509185946 86 0 2.0 6.0 0.00 0.00 0.00 72 1000.7
20260509185845 86 0 2.0 6.0 0.00 0.00 0.00 72 1000.6
20260509185745 86 0 2.0 6.0 0.00 0.00 0.00 72 1000.7
20260509185646 86 0 3.0 6.0 0.00 0.00 0.00 72 1000.7
20260509185546 86 0 2.0 6.0 0.00 0.00 0.00 73 1000.7
20260509185446 86 0 3.0 6.0 0.00 0.00 0.00 72 1000.7
20260509185347 86 0 3.0 6.0 0.00 0.00 0.00 73 1000.7
20260509185245 86 0 2.0 6.0 0.00 0.00 0.00 73 1000.7
20260509185145 86 0 3.0 6.0 0.00 0.00 0.00 72 1000.8
20260509185045 86 0 3.0 6.0 0.00 0.00 0.00 72 1000.8
20260509184946 86 0 3.0 6.0 0.00 0.00 0.00 73 1000.8
20260509184846 86 0 2.0 5.0 0.00 0.00 0.00 73 1000.9
20260509184745 86 0 1.0 5.0 0.00 0.00 0.00 73 1000.9
20260509184645 86 0 2.0 5.0 0.00 0.00 0.00 73 1000.8
20260509184545 86 0 2.0 5.0 0.00 0.00 0.00 73 1000.8
20260509184446 86 0 2.0 5.0 0.00 0.00 0.00 75 1000.9
20260509184346 86 0 3.0 6.0 0.00 0.00 0.00 74 1000.8
20260509184246 85 0 2.0 6.0 0.00 0.00 0.00 75 1000.8
20260509184145 86 0 3.0 6.0 0.00 0.00 0.00 75 1000.8
20260509184045 85 0 3.0 6.0 0.00 0.00 0.00 75 1000.9
20260509183947 85 288 3.0 6.0 0.00 0.00 0.00 75 1000.7
20260509183845 85 227 4.0 7.0 0.00 0.00 0.00 75 1000.9
20260509183745 85 240 4.0 7.0 0.00 0.00 0.00 75 1000.8
20260509183646 85 213 3.0 7.0 0.00 0.00 0.00 77 1000.7
20260509183545 85 214 3.0 7.0 0.00 0.00 0.00 77 1000.8
20260509183445 85 207 4.0 7.0 0.00 0.00 0.00 76 1000.8
20260509183345 85 189 4.0 7.0 0.00 0.00 0.00 77 1000.8
20260509183246 85 155 4.0 7.0 0.00 0.00 0.00 76 1000.9
20260509183145 85 165 3.0 7.0 0.00 0.00 0.00 75 1000.9
20260509183045 85 168 4.0 7.0 0.00 0.00 0.00 75 1001.0
20260509182945 85 0 5.0 7.0 0.00 0.00 0.00 76 1001.0
20260509182844 85 0 5.0 7.0 0.00 0.00 0.00 76 1001.0
20260509182745 85 0 4.0 7.0 0.00 0.00 0.00 76 1001.1
20260509182646 85 0 5.0 7.0 0.00 0.00 0.00 76 1001.0
20260509182546 85 0 5.0 7.0 0.00 0.00 0.00 78 1001.1
20260509182445 85 0 4.0 7.0 0.00 0.00 0.00 76 1001.1
20260509182344 85 0 2.0 7.0 0.00 0.00 0.00 76 1001.2
20260509182244 85 0 0.0 9.0 0.00 0.00 0.00 77 1001.2
20260509182144 85 0 1.0 9.0 0.00 0.00 0.00 77 1001.2
20260509182044 85 0 2.0 9.0 0.00 0.00 0.00 77 1001.2
20260509181945 85 0 2.0 9.0 0.00 0.00 0.00 78 1001.2
20260509181846 85 203 3.0 9.0 0.00 0.00 0.00 78 1001.2
20260509181744 85 203 4.0 9.0 0.00 0.00 0.00 78 1001.2
20260509181644 85 212 4.0 9.0 0.00 0.00 0.00 79 1001.2
20260509181546 85 210 5.0 9.0 0.00 0.00 0.00 78 1001.2
20260509181444 84 0 6.0 9.0 0.00 0.00 0.00 77 1001.2
20260509181345 84 0 6.0 9.0 0.00 0.00 0.00 77 1001.3
20260509181246 84 0 5.0 7.0 0.00 0.00 0.00 77 1001.3
20260509181146 84 0 5.0 7.0 0.00 0.00 0.00 77 1001.3
20260509181044 84 0 4.0 7.0 0.00 0.00 0.00 78 1001.4
20260509180944 84 0 4.0 7.0 0.00 0.00 0.00 78 1001.5
20260509180846 84 0 4.0 7.0 0.00 0.00 0.00 79 1001.5
20260509180744 84 0 4.0 6.0 0.00 0.00 0.00 79 1001.5
20260509180644 84 0 3.0 6.0 0.00 0.00 0.00 79 1001.6
20260509180545 84 0 3.0 6.0 0.00 0.00 0.00 79 1001.5
20260509180444 84 0 3.0 6.0 0.00 0.00 0.00 79 1001.5
20260509180344 84 0 3.0 5.0 0.00 0.00 0.00 80 1001.5
20260509180244 84 0 3.0 5.0 0.00 0.00 0.00 80 1001.5
20260509180146 84 0 4.0 6.0 0.00 0.00 0.00 80 1001.5
20260509180044 84 0 3.0 9.0 0.00 0.00 0.00 80 1001.5
20260509175944 84 0 2.0 9.0 0.00 0.00 0.00 80 1001.6
20260509175845 84 0 1.0 9.0 0.00 0.00 0.00 80 1001.6
20260509175744 84 0 2.0 9.0 0.00 0.00 0.00 80 1001.6
20260509175644 84 0 2.0 9.0 0.00 0.00 0.00 80 1001.6
20260509175544 84 0 3.0 9.0 0.00 0.00 0.00 80 1001.6
20260509175445 84 0 3.0 9.0 0.00 0.00 0.00 80 1001.6
20260509175344 84 0 4.0 9.0 0.00 0.00 0.00 80 1001.6
20260509175244 84 0 5.0 9.0 0.00 0.00 0.00 80 1001.5
20260509175145 84 0 4.0 9.0 0.00 0.00 0.00 80 1001.4
20260509175044 84 0 2.0 6.0 0.00 0.00 0.00 81 1001.5
20260509174945 84 0 2.0 6.0 0.00 0.00 0.00 81 1001.6
20260509174843 83 0 3.0 7.0 0.00 0.00 0.00 81 1001.6
20260509174745 83 0 3.0 7.0 0.00 0.00 0.00 81 1001.7
20260509174643 83 0 3.0 7.0 0.00 0.00 0.00 81 1001.7
20260509174544 83 0 3.0 7.0 0.00 0.00 0.00 81 1001.7
20260509174445 83 0 3.0 7.0 0.00 0.00 0.00 81 1001.7
20260509174344 83 0 2.0 7.0 0.00 0.00 0.00 81 1001.8
20260509174243 83 0 3.0 7.0 0.00 0.00 0.00 81 1001.8
20260509174144 83 0 4.0 7.0 0.00 0.00 0.00 81 1001.8
20260509174045 83 0 4.0 7.0 0.00 0.00 0.00 81 1001.7
20260509173943 83 0 5.0 7.0 0.00 0.00 0.00 80 1001.7
20260509173844 83 0 4.0 6.0 0.00 0.00 0.00 80 1001.8
20260509173743 83 0 3.0 6.0 0.00 0.00 0.00 80 1001.7
20260509173644 83 0 2.0 4.0 0.00 0.00 0.00 80 1001.7
20260509173543 83 0 2.0 4.0 0.00 0.00 0.00 80 1001.8
20260509173443 83 0 2.0 4.0 0.00 0.00 0.00 80 1001.8
20260509173343 83 0 2.0 5.0 0.00 0.00 0.00 81 1001.8
20260509173244 83 0 2.0 5.0 0.00 0.00 0.00 81 1001.8
20260509173143 83 0 2.0 5.0 0.00 0.00 0.00 81 1001.8
20260509173045 83 0 1.0 5.0 0.00 0.00 0.00 81 1001.8
20260509172943 83 0 2.0 5.0 0.00 0.00 0.00 81 1001.8
20260509172844 83 0 2.0 5.0 0.00 0.00 0.00 81 1001.8
20260509172743 83 0 2.0 9.0 0.00 0.00 0.00 81 1001.7
20260509172644 83 0 2.0 9.0 0.00 0.00 0.00 81 1001.7
20260509172543 83 0 3.0 9.0 0.00 0.00 0.00 80 1001.7
20260509172443 83 0 4.0 9.0 0.00 0.00 0.00 80 1001.7
20260509172345 83 0 4.0 9.0 0.00 0.00 0.00 80 1001.7
20260509172243 83 0 3.0 9.0 0.00 0.00 0.00 80 1001.7
20260509172143 83 0 3.0 9.0 0.00 0.00 0.00 80 1001.6
20260509172044 83 0 3.0 9.0 0.00 0.00 0.00 80 1001.7
20260509171944 83 0 5.0 9.0 0.00 0.00 0.00 80 1001.8
20260509171843 83 0 5.0 9.0 0.00 0.00 0.00 80 1001.7
20260509171743 83 0 3.0 6.0 0.00 0.00 0.00 80 1001.7
20260509171644 83 0 3.0 4.0 0.00 0.00 0.00 80 1001.6
20260509171543 83 0 2.0 4.0 0.00 0.00 0.00 80 1001.7
20260509171444 83 0 2.0 4.0 0.00 0.00 0.00 80 1001.7
20260509171343 83 180 2.0 5.0 0.00 0.00 0.00 80 1001.6
20260509171244 83 182 2.0 6.0 0.00 0.00 0.00 81 1001.7
20260509171144 83 182 2.0 10.0 0.00 0.00 0.00 81 1001.7
20260509171044 83 180 1.0 12.0 0.00 0.00 0.00 81 1001.6
20260509170945 83 178 2.0 12.0 0.00 0.00 0.00 81 1001.5
20260509170843 83 176 3.0 12.0 0.00 0.00 0.00 80 1001.5
20260509170743 83 175 2.0 12.0 0.00 0.00 0.00 81 1001.4
20260509170644 83 190 2.0 12.0 0.00 0.00 0.00 81 1001.4
20260509170543 83 190 3.0 12.0 0.00 0.00 0.00 81 1001.4
20260509170442 83 182 4.0 12.0 0.00 0.00 0.00 81 1001.4
20260509170343 83 0 6.0 12.0 0.00 0.00 0.00 80 1001.3
20260509170246 83 0 8.0 12.0 0.00 0.00 0.00 81 1001.4
20260509170144 83 0 7.0 12.0 0.00 0.00 0.00 81 1001.4
20260509170044 83 0 6.0 10.0 0.00 0.00 0.00 81 1001.3
20260509165942 83 0 4.0 10.0 0.00 0.00 0.00 82 1001.3
20260509165843 83 0 4.0 10.0 0.00 0.00 0.00 82 1001.3
20260509165743 83 0 5.0 10.0 0.00 0.00 0.00 82 1001.3
20260509165643 83 0 6.0 10.0 0.00 0.00 0.00 81 1001.2
20260509165544 83 0 8.0 10.0 0.00 0.00 0.00 81 1001.3
20260509165442 83 0 6.0 10.0 0.00 0.00 0.00 81 1001.3
20260509165343 83 168 6.0 9.0 0.00 0.00 0.00 80 1001.3
20260509165243 83 0 6.0 9.0 0.00 0.00 0.00 81 1001.4
20260509165142 83 0 5.0 7.0 0.00 0.00 0.00 82 1001.4
20260509165044 83 0 4.0 6.0 0.00 0.00 0.00 82 1001.4
20260509164942 83 0 4.0 6.0 0.00 0.00 0.00 82 1001.4
20260509164843 83 0 3.0 6.0 0.00 0.00 0.00 82 1001.4
20260509164743 83 0 2.0 5.0 0.00 0.00 0.00 82 1001.4
20260509164642 83 0 3.0 7.0 0.00 0.00 0.00 83 1001.4
20260509164542 83 0 2.0 7.0 0.00 0.00 0.00 83 1001.4
20260509164442 83 0 2.0 7.0 0.00 0.00 0.00 83 1001.4
20260509164343 82 0 3.0 7.0 0.00 0.00 0.00 83 1001.4
20260509164242 82 0 3.0 7.0 0.00 0.00 0.00 84 1001.4
20260509164144 82 0 2.0 7.0 0.00 0.00 0.00 83 1001.4
20260509164043 82 0 3.0 7.0 0.00 0.00 0.00 83 1001.4
20260509163942 82 0 2.0 7.0 0.00 0.00 0.00 83 1001.5
20260509163843 82 0 3.0 7.0 0.00 0.00 0.00 84 1001.4
20260509163744 82 0 5.0 7.0 0.00 0.00 0.00 84 1001.4
20260509163643 82 0 3.0 7.0 0.00 0.00 0.00 85 1001.5
20260509163542 82 0 2.0 10.0 0.00 0.00 0.00 85 1001.4
20260509163444 82 0 2.0 10.0 0.00 0.00 0.00 85 1001.3
20260509163343 82 0 2.0 10.0 0.00 0.00 0.00 86 1001.4
20260509163242 82 0 3.0 10.0 0.00 0.00 0.00 86 1001.4
20260509163143 81 0 4.0 10.0 0.00 0.00 0.00 86 1001.4
20260509163043 81 0 4.0 10.0 0.00 0.00 0.00 86 1001.4
20260509162942 81 0 5.0 10.0 0.00 0.00 0.00 86 1001.3
20260509162843 81 0 5.0 10.0 0.00 0.00 0.00 86 1001.4
20260509162743 81 0 6.0 10.0 0.00 0.00 0.00 85 1001.4
20260509162642 81 0 6.0 10.0 0.00 0.00 0.00 86 1001.3
20260509162542 80 0 5.0 9.0 0.00 0.00 0.00 87 1001.4
20260509162444 80 0 4.0 9.0 0.00 0.00 0.00 87 1001.3
20260509162342 80 0 4.0 9.0 0.00 0.00 0.00 88 1001.4
20260509162242 80 182 3.0 9.0 0.00 0.00 0.00 88 1001.4
20260509162142 80 0 3.0 9.0 0.00 0.00 0.00 88 1001.4
20260509162045 80 0 3.0 9.0 0.00 0.00 0.00 88 1001.4
20260509161943 80 0 4.0 9.0 0.00 0.00 0.00 88 1001.4
20260509161842 80 0 6.0 9.0 0.00 0.00 0.00 88 1001.4
20260509161743 79 0 5.0 9.0 0.00 0.00 0.00 89 1001.4
20260509161642 79 0 4.0 9.0 0.00 0.00 0.00 89 1001.5
20260509161542 79 0 4.0 9.0 0.00 0.00 0.00 90 1001.4
20260509161442 79 0 4.0 9.0 0.00 0.00 0.00 90 1001.5
20260509161343 79 0 5.0 9.0 0.00 0.00 0.00 91 1001.6
20260509161242 79 0 5.0 9.0 0.00 0.00 0.00 91 1001.6
20260509161141 79 0 6.0 9.0 0.00 0.00 0.00 92 1001.6
20260509161043 79 0 5.0 9.0 0.00 0.00 0.00 92 1001.6
20260509160942 79 0 4.0 6.0 0.00 0.00 0.00 92 1001.6
20260509160841 79 0 4.0 5.0 0.00 0.00 0.00 92 1001.7
20260509160742 78 0 4.0 5.0 0.00 0.00 0.00 92 1001.7
20260509160642 78 0 3.0 5.0 0.00 0.00 0.00 93 1001.7
20260509160541 78 0 3.0 5.0 0.00 0.00 0.00 93 1001.7
20260509160441 78 0 3.0 5.0 0.00 0.00 0.00 93 1001.8
20260509160343 78 0 2.0 5.0 0.00 0.00 0.00 93 1001.8
20260509160241 78 0 2.0 5.0 0.00 0.00 0.00 93 1001.8
20260509160142 78 0 3.0 5.0 0.00 0.00 0.00 93 1001.9
20260509160042 78 0 3.0 5.0 0.00 0.00 0.00 94 1001.9
20260509155943 78 0 2.0 5.0 0.00 0.00 0.00 94 1001.9
20260509155841 78 135 2.0 4.0 0.00 0.00 0.00 94 1001.9
20260509155742 78 134 1.0 4.0 0.00 0.00 0.00 94 1001.9
20260509155643 78 140 0.0 0.0 0.00 0.00 0.00 94 1002.0
20260509155543 78 0 0.0 0.0 0.00 0.00 0.00 94 1002.0
20260509155443 78 0 0.0 0.0 0.00 0.00 0.00 94 1001.9
20260509155342 78 0 0.0 0.0 0.00 0.00 0.00 94 1002.0
20260509155242 78 0 0.0 0.0 0.00 0.00 0.00 94 1002.0
20260509155141 78 0 0.0 0.0 0.00 0.00 0.00 94 1002.1
20260509155042 78 0 0.0 0.0 0.00 0.00 0.00 95 1002.1
20260509154942 77 0 0.0 0.0 0.00 0.00 0.00 95 1002.1
20260509154842 77 164 0.0 0.0 0.00 0.00 0.00 95 1002.1
20260509154741 77 152 0.0 0.0 0.00 0.00 0.00 95 1002.1
20260509154643 77 152 0.0 0.0 0.00 0.00 0.00 95 1002.1
20260509154541 77 152 0.0 0.0 0.00 0.00 0.00 95 1002.1
20260509154441 77 154 0.0 0.0 0.00 0.00 0.00 95 1002.2
20260509154342 77 154 0.0 0.0 0.00 0.00 0.00 95 1002.3
20260509154242 77 154 0.0 0.0 0.00 0.00 0.00 95 1002.2
20260509154141 77 154 0.0 2.0 0.00 0.00 0.00 95 1002.3
20260509154041 77 154 0.0 2.0 0.00 0.00 0.00 95 1002.3
20260509153940 77 154 0.0 2.0 0.00 0.00 0.00 95 1002.2
20260509153841 77 154 0.0 3.0 0.00 0.00 0.00 95 1002.3
20260509153741 77 154 0.0 3.0 0.00 0.00 0.00 96 1002.4
20260509153641 77 152 0.0 3.0 0.00 0.00 0.00 96 1002.3
20260509153542 77 152 0.0 3.0 0.00 0.00 0.00 96 1002.3
20260509153440 77 151 0.0 3.0 0.00 0.00 0.00 96 1002.3
20260509153341 77 152 0.0 4.0 0.00 0.00 0.00 96 1002.1
20260509153242 77 152 1.0 4.0 0.00 0.00 0.00 96 1002.1
20260509153140 77 152 1.0 4.0 0.00 0.00 0.00 96 1002.0
20260509153040 77 152 1.0 4.0 0.00 0.00 0.00 96 1002.1
20260509152942 77 152 1.0 4.0 0.00 0.00 0.00 96 1002.0
20260509152842 77 152 1.0 4.0 0.00 0.00 0.00 96 1002.1
20260509152740 77 152 2.0 4.0 0.00 0.00 0.00 96 1002.0
20260509152640 77 152 2.0 4.0 0.00 0.00 0.00 96 1002.1
20260509152540 77 0 2.0 4.0 0.00 0.00 0.00 96 1002.1
20260509152440 77 155 2.0 4.0 0.00 0.00 0.00 96 1002.1
20260509152341 77 0 2.0 3.0 0.00 0.00 0.00 96 1002.1
20260509152241 77 0 1.0 3.0 0.00 0.00 0.00 96 1002.2
20260509152140 77 0 1.0 2.0 0.00 0.00 0.00 96 1002.2
20260509152041 77 0 0.0 2.0 0.00 0.00 0.00 96 1002.1
20260509151941 77 0 0.0 1.0 0.00 0.00 0.00 97 1002.1
20260509151841 77 0 0.0 1.0 0.00 0.00 0.00 97 1002.0
20260509151741 77 0 0.0 1.0 0.00 0.00 0.00 97 1002.0
20260509151642 77 0 0.0 1.0 0.00 0.00 0.00 97 1002.0
20260509151540 76 0 0.0 1.0 0.00 0.00 0.00 97 1002.0
20260509151441 76 0 0.0 0.0 0.00 0.00 0.00 97 1002.0
20260509151342 76 0 0.0 0.0 0.00 0.00 0.00 97 1002.0
20260509151240 76 0 0.0 0.0 0.00 0.00 0.00 97 1001.9
20260509151141 76 0 0.0 0.0 0.00 0.00 0.00 97 1001.9
20260509151040 76 0 0.0 0.0 0.00 0.00 0.00 97 1001.9
20260509150940 76 0 0.0 0.0 0.00 0.00 0.00 97 1001.8
20260509150840 76 0 0.0 0.0 0.00 0.00 0.00 97 1001.8
20260509150740 76 0 0.0 0.0 0.00 0.00 0.00 97 1001.8
20260509150641 76 0 0.0 0.0 0.00 0.00 0.00 97 1001.8
20260509150541 76 0 0.0 0.0 0.00 0.00 0.00 97 1001.8
20260509150440 76 0 0.0 0.0 0.00 0.00 0.00 97 1001.9
20260509150340 76 0 0.0 0.0 0.00 0.00 0.00 97 1001.8
20260509150240 76 0 0.0 0.0 0.00 0.00 0.00 97 1001.9
20260509150140 76 0 0.0 0.0 0.00 0.00 0.00 97 1001.9
20260509150041 76 0 0.0 0.0 0.00 0.00 0.00 97 1001.9
20260509145941 76 0 0.0 0.0 0.00 0.00 0.00 97 1001.9
20260509145840 76 0 0.0 0.0 0.00 0.00 0.00 97 1001.9
20260509145741 76 0 0.0 0.0 0.00 0.00 0.00 97 1001.8
20260509145640 76 0 0.0 0.0 0.00 0.00 0.00 97 1001.7
20260509145540 76 0 0.0 0.0 0.00 0.00 0.00 97 1001.8
20260509145441 76 0 0.0 0.0 0.00 0.00 0.00 97 1001.7
20260509145340 76 0 0.0 0.0 0.00 0.00 0.00 97 1001.8
20260509145240 76 0 0.0 0.0 0.00 0.00 0.00 97 1001.7
20260509145140 76 0 0.0 0.0 0.00 0.00 0.00 97 1001.7
20260509145041 76 0 0.0 0.0 0.00 0.00 0.00 97 1001.6
20260509144939 76 0 0.0 0.0 0.00 0.00 0.00 97 1001.6
20260509144840 76 164 0.0 0.0 0.00 0.00 0.00 97 1001.6
20260509144740 76 0 0.0 0.0 0.00 0.00 0.00 97 1001.6
20260509144639 76 0 0.0 0.0 0.00 0.00 0.00 97 1001.6
20260509144539 76 0 0.0 0.0 0.00 0.00 0.00 97 1001.5
20260509144440 76 0 0.0 0.0 0.00 0.00 0.00 97 1001.6
20260509144341 76 0 0.0 0.0 0.00 0.00 0.00 97 1001.4
20260509144241 76 166 0.0 0.0 0.00 0.00 0.00 97 1001.3
20260509144139 76 164 0.0 0.0 0.00 0.00 0.00 97 1001.4
20260509144040 76 165 0.0 0.0 0.00 0.00 0.00 97 1001.4
20260509143940 76 165 0.0 0.0 0.00 0.00 0.00 97 1001.4
20260509143839 76 164 0.0 0.0 0.00 0.00 0.00 97 1001.6
20260509143739 76 164 0.0 0.0 0.00 0.00 0.00 97 1001.6
20260509143641 76 166 0.0 0.0 0.00 0.00 0.00 97 1001.5
20260509143539 76 166 0.0 0.0 0.00 0.00 0.00 97 1001.5
20260509143440 76 164 0.0 0.0 0.00 0.00 0.00 97 1001.3
20260509143340 76 164 0.0 0.0 0.00 0.00 0.00 97 1001.4
20260509143240 76 164 0.0 0.0 0.00 0.00 0.00 97 1001.3
20260509143139 76 164 0.0 0.0 0.00 0.00 0.00 97 1001.4
20260509143041 75 162 0.0 0.0 0.00 0.00 0.00 97 1001.4
20260509142941 75 162 0.0 0.0 0.00 0.00 0.00 97 1001.4
20260509142841 75 162 0.0 0.0 0.00 0.00 0.00 97 1001.5
20260509142741 75 162 0.0 0.0 0.00 0.00 0.00 97 1001.3
20260509142640 75 161 0.0 0.0 0.00 0.00 0.00 97 1001.4
20260509142540 75 162 0.0 0.0 0.00 0.00 0.00 97 1001.3
20260509142439 75 0 0.0 0.0 0.00 0.00 0.00 97 1001.3
20260509142339 75 0 0.0 0.0 0.00 0.00 0.00 97 1001.3
20260509142240 75 0 0.0 0.0 0.00 0.00 0.00 97 1001.2
20260509142140 75 164 0.0 0.0 0.00 0.00 0.00 97 1001.2
20260509142039 75 162 0.0 0.0 0.00 0.00 0.00 97 1001.2
20260509141940 75 162 0.0 0.0 0.00 0.00 0.00 97 1001.2
20260509141839 75 162 0.0 0.0 0.00 0.00 0.00 97 1001.3
20260509141741 75 162 0.0 0.0 0.00 0.00 0.00 97 1001.3
20260509141639 75 159 0.0 0.0 0.00 0.00 0.00 97 1001.4
20260509141539 75 159 0.0 0.0 0.00 0.00 0.00 97 1001.3
20260509141439 75 161 0.0 0.0 0.00 0.00 0.00 97 1001.4
20260509141339 75 168 0.0 0.0 0.00 0.00 0.00 98 1001.3
20260509141240 75 161 0.0 0.0 0.00 0.00 0.00 98 1001.3
20260509141139 75 158 0.0 0.0 0.00 0.00 0.00 97 1001.3
20260509141039 75 158 0.0 0.0 0.00 0.00 0.00 97 1001.3
20260509140941 75 158 0.0 0.0 0.00 0.00 0.00 97 1001.4
20260509140840 75 158 0.0 0.0 0.00 0.00 0.00 97 1001.4
20260509140740 75 157 0.0 0.0 0.00 0.00 0.00 97 1001.4
20260509140638 75 165 0.0 0.0 0.00 0.00 0.00 97 1001.4
20260509140540 75 159 0.0 0.0 0.00 0.00 0.00 97 1001.4
20260509140440 75 158 0.0 0.0 0.00 0.00 0.00 97 1001.3
20260509140339 75 158 0.0 0.0 0.00 0.00 0.00 97 1001.4
20260509140239 75 158 0.0 0.0 0.00 0.00 0.00 97 1001.4
20260509140139 75 158 0.0 0.0 0.00 0.00 0.00 97 1001.4
20260509140041 75 158 0.0 0.0 0.00 0.00 0.00 97 1001.3
20260509135939 75 158 0.0 0.0 0.00 0.00 0.00 97 1001.3
20260509135840 75 157 0.0 0.0 0.00 0.00 0.00 97 1001.2
20260509135739 75 158 0.0 0.0 0.00 0.00 0.00 97 1001.3
20260509135639 75 158 0.0 0.0 0.00 0.00 0.00 97 1001.3
20260509135539 75 158 0.0 0.0 0.00 0.00 0.00 97 1001.3
20260509135439 75 158 0.0 0.0 0.00 0.00 0.00 97 1001.3
20260509135338 75 158 0.0 0.0 0.00 0.00 0.00 97 1001.4
20260509135238 75 158 0.0 0.0 0.00 0.00 0.00 97 1001.4
20260509135140 75 158 0.0 0.0 0.00 0.00 0.00 97 1001.5
20260509135039 75 158 0.0 0.0 0.00 0.00 0.00 97 1001.5
20260509134937 75 158 0.0 0.0 0.00 0.00 0.00 97 1001.5
20260509134839 75 158 0.0 0.0 0.00 0.00 0.00 97 1001.5
20260509134738 75 159 0.0 0.0 0.00 0.00 0.00 98 1001.5
20260509134638 75 161 0.0 0.0 0.00 0.00 0.00 98 1001.5
20260509134538 75 165 0.0 3.0 0.00 0.00 0.00 97 1001.4
20260509134440 75 161 0.0 4.0 0.00 0.00 0.00 98 1001.4
20260509134338 75 161 0.0 4.0 0.00 0.00 0.00 98 1001.5
20260509134239 75 161 0.0 4.0 0.00 0.00 0.00 97 1001.5
20260509134139 75 161 0.0 4.0 0.00 0.00 0.00 97 1001.6
20260509134039 75 161 0.0 4.0 0.00 0.00 0.00 97 1001.6
20260509133938 75 161 0.0 5.0 0.00 0.00 0.00 97 1001.6
20260509133838 75 162 0.0 5.0 0.00 0.00 0.00 98 1001.5
20260509133739 75 162 0.0 5.0 0.00 0.00 0.00 97 1001.6
20260509133638 75 162 2.0 5.0 0.00 0.00 0.00 97 1001.5
20260509133538 75 162 3.0 7.0 0.00 0.00 0.00 97 1001.5
20260509133440 75 165 2.0 7.0 0.00 0.00 0.00 97 1001.4
20260509133338 75 165 2.0 7.0 0.00 0.00 0.00 97 1001.4
20260509133239 75 164 3.0 7.0 0.00 0.00 0.00 97 1001.4
20260509133138 75 180 4.0 7.0 0.00 0.00 0.00 97 1001.4
20260509133039 75 154 4.0 7.0 0.00 0.00 0.00 98 1001.4
20260509132938 75 185 4.0 7.0 0.00 0.00 0.00 98 1001.4
20260509132838 75 183 3.0 7.0 0.00 0.00 0.00 98 1001.6
20260509132739 75 180 4.0 7.0 0.00 0.00 0.00 98 1001.7
20260509132639 75 180 5.0 7.0 0.00 0.00 0.00 98 1001.8
20260509132538 75 180 4.0 6.0 0.00 0.00 0.00 98 1001.7
20260509132439 75 185 4.0 6.0 0.00 0.00 0.00 98 1001.8
20260509132338 75 183 3.0 6.0 0.00 0.00 0.00 98 1001.8
20260509132239 75 179 3.0 6.0 0.00 0.00 0.00 98 1001.8
20260509132137 75 180 4.0 6.0 0.00 0.00 0.00 98 1001.8
20260509132038 75 179 5.0 6.0 0.00 0.00 0.00 98 1001.8
20260509131937 75 180 5.0 6.0 0.00 0.00 0.00 98 1001.8
20260509131835 75 178 4.0 6.0 0.00 0.00 0.00 98 1001.9
20260509131735 75 186 4.0 6.0 0.00 0.00 0.00 98 1001.8
20260509131633 75 190 4.0 6.0 0.00 0.00 0.00 98 1001.8
20260509131531 75 193 4.0 7.0 0.00 0.00 0.00 97 1001.8
20260509131432 75 190 4.0 7.0 0.00 0.00 0.00 98 1001.8
20260509131330 75 190 5.0 7.0 0.00 0.00 0.00 97 1001.8
20260509131231 75 175 4.0 7.0 0.00 0.00 0.00 98 1001.8
20260509131131 75 173 4.0 7.0 0.00 0.00 0.00 98 1001.8
20260509131031 75 178 4.0 7.0 0.00 0.00 0.00 97 1001.8
20260509130932 75 171 4.0 7.0 0.00 0.00 0.00 97 1001.8
20260509130831 75 169 5.0 7.0 0.00 0.00 0.00 97 1001.8
20260509130731 75 176 5.0 7.0 0.00 0.00 0.00 97 1001.8
20260509130631 75 180 5.0 7.0 0.00 0.00 0.00 97 1001.8
20260509130532 75 168 5.0 6.0 0.00 0.00 0.00 97 1001.7
20260509130431 75 169 4.0 6.0 0.00 0.00 0.00 97 1001.8
20260509130331 75 178 4.0 5.0 0.00 0.00 0.00 97 1001.8
20260509130233 75 179 4.0 5.0 0.00 0.00 0.00 97 1001.9
20260509130132 75 182 3.0 5.0 0.00 0.00 0.00 97 1001.9
20260509130032 75 179 2.0 5.0 0.00 0.00 0.00 97 1001.9
20260509125931 75 180 0.0 5.0 0.00 0.00 0.00 97 1001.9
20260509125832 75 185 0.0 2.0 0.00 0.00 0.00 97 1001.9
20260509125731 75 185 0.0 2.0 0.00 0.00 0.00 97 1001.9
20260509125632 75 185 0.0 2.0 0.00 0.00 0.00 97 1002.0
20260509125532 75 185 0.0 2.0 0.00 0.00 0.00 98 1002.1
20260509125431 75 186 0.0 0.0 0.00 0.00 0.00 98 1002.1
20260509125331 75 186 0.0 0.0 0.00 0.00 0.00 98 1002.1
20260509125232 75 186 0.0 0.0 0.00 0.00 0.00 98 1002.1
20260509125132 75 185 0.0 0.0 0.00 0.00 0.00 98 1002.1
20260509125032 75 185 0.0 0.0 0.00 0.00 0.00 98 1002.0
20260509124931 75 186 0.0 0.0 0.00 0.00 0.00 98 1002.0
20260509124832 75 185 0.0 0.0 0.00 0.00 0.00 98 1002.0
20260509124731 75 185 0.0 0.0 0.00 0.00 0.00 98 1001.9
20260509124632 75 185 0.0 0.0 0.00 0.00 0.00 98 1001.8
20260509124533 75 186 0.0 0.0 0.00 0.00 0.00 98 1001.7
20260509124431 75 185 0.0 0.0 0.00 0.00 0.00 98 1001.7
20260509124331 75 185 0.0 0.0 0.00 0.00 0.00 98 1001.7
20260509124230 75 188 0.0 0.0 0.00 0.00 0.00 98 1001.7
20260509124128 75 186 0.0 0.0 0.00 0.00 0.00 98 1001.7
20260509124027 75 186 0.0 0.0 0.00 0.00 0.00 98 1001.7
20260509123925 75 186 0.0 0.0 0.00 0.00 0.00 98 1001.7
20260509123824 75 196 0.0 0.0 0.00 0.00 0.00 98 1001.7
20260509123722 75 186 0.0 0.0 0.00 0.00 0.00 98 1001.5
20260509123620 75 186 0.0 0.0 0.00 0.00 0.00 98 1001.4
20260509123520 75 185 0.0 0.0 0.00 0.00 0.00 98 1001.5
20260509123417 75 183 0.0 0.0 0.00 0.00 0.00 98 1001.5
20260509123315 74 183 0.0 0.0 0.00 0.00 0.00 98 1001.4
20260509123216 74 183 0.0 0.0 0.00 0.00 0.00 98 1001.4
20260509123112 74 183 0.0 0.0 0.00 0.00 0.00 98 1001.4
20260509123010 74 188 0.0 0.0 0.00 0.00 0.00 98 1001.5
20260509122907 74 186 0.0 0.0 0.00 0.00 0.00 98 1001.4
20260509122807 74 183 0.0 0.0 0.00 0.00 0.00 98 1001.5
20260509122705 74 183 0.0 0.0 0.00 0.00 0.00 98 1001.4
20260509122604 74 185 0.0 0.0 0.00 0.00 0.00 98 1001.4
20260509122504 74 183 0.0 0.0 0.00 0.00 0.00 98 1001.3
20260509122402 74 183 0.0 0.0 0.00 0.00 0.00 98 1001.4
20260509122305 74 183 0.0 0.0 0.00 0.00 0.00 98 1001.3
20260509122203 74 183 0.0 0.0 0.00 0.00 0.00 98 1001.3
20260509122102 74 183 0.0 0.0 0.00 0.00 0.00 98 1001.4
20260509122002 74 183 0.0 0.0 0.00 0.00 0.00 98 1001.3
20260509121903 74 183 0.0 0.0 0.00 0.00 0.00 97 1001.3
20260509121802 74 183 0.0 0.0 0.00 0.00 0.00 98 1001.3
20260509121703 74 182 0.0 0.0 0.00 0.00 0.00 98 1001.4
20260509121602 74 182 0.0 0.0 0.00 0.00 0.00 98 1001.5
20260509121504 74 183 0.0 0.0 0.00 0.00 0.00 98 1001.4
20260509121402 74 182 0.0 0.0 0.00 0.00 0.00 98 1001.5
20260509121302 74 182 0.0 0.0 0.00 0.00 0.00 98 1001.5
20260509121204 74 172 0.0 0.0 0.00 0.00 0.00 98 1001.5
20260509121104 74 171 0.0 0.0 0.00 0.00 0.00 98 1001.5
20260509121003 74 171 0.0 0.0 0.00 0.00 0.00 98 1001.5
20260509120902 74 171 0.0 0.0 0.00 0.00 0.00 97 1001.4
20260509120802 74 171 0.0 0.0 0.00 0.00 0.00 97 1001.4
20260509120702 74 171 0.0 0.0 0.00 0.00 0.00 97 1001.4
20260509120602 74 171 0.0 0.0 0.00 0.00 0.00 98 1001.3
20260509120505 74 169 0.0 0.0 0.00 0.00 0.00 97 1001.4
20260509120402 74 171 0.0 0.0 0.00 0.00 0.00 97 1001.3
20260509120302 74 171 0.0 0.0 0.00 0.00 0.00 97 1001.2
20260509120203 74 171 0.0 0.0 0.00 0.00 0.00 97 1001.2
20260509120103 74 171 0.0 0.0 0.00 0.00 0.00 97 1001.2
20260509120003 74 171 0.0 0.0 0.00 0.00 0.00 97 1001.2
20260509115902 74 169 0.0 0.0 0.00 0.00 0.00 97 1001.2
20260509115803 74 169 0.0 0.0 0.00 0.00 0.00 97 1001.2
20260509115702 74 164 0.0 0.0 0.00 0.00 0.00 97 1001.3
20260509115602 74 162 0.0 0.0 0.00 0.00 0.00 97 1001.2
20260509115459 74 162 0.0 0.0 0.00 0.00 0.00 97 1001.2
20260509115400 74 162 0.0 0.0 0.00 0.00 0.00 97 1001.3
20260509115257 74 162 0.0 0.0 0.00 0.00 0.00 97 1001.2
20260509115155 74 162 0.0 0.0 0.00 0.00 0.00 97 1001.1
20260509115054 74 162 0.0 0.0 0.00 0.00 0.00 97 1001.2
20260509114954 74 162 0.0 0.0 0.00 0.00 0.00 97 1001.2
20260509114851 74 161 0.0 0.0 0.00 0.00 0.00 97 1001.2
20260509114749 74 161 0.0 0.0 0.00 0.00 0.00 97 1001.2
20260509114648 74 162 0.0 0.0 0.00 0.00 0.00 97 1001.2
20260509114548 74 162 0.0 0.0 0.00 0.00 0.00 97 1001.3
20260509114443 74 162 0.0 0.0 0.00 0.00 0.00 97 1001.3
20260509114342 74 162 0.0 0.0 0.00 0.00 0.00 97 1001.3
20260509114240 74 162 0.0 0.0 0.00 0.00 0.00 97 1001.3
20260509114139 74 162 0.0 0.0 0.00 0.00 0.00 97 1001.2
20260509114037 74 162 0.0 0.0 0.00 0.00 0.00 97 1001.4
20260509113937 74 162 0.0 0.0 0.00 0.00 0.00 97 1001.5
20260509113836 74 162 0.0 0.0 0.00 0.00 0.00 97 1001.5
20260509113735 74 162 0.0 0.0 0.00 0.00 0.00 97 1001.6
20260509113638 74 162 0.0 0.0 0.00 0.00 0.00 97 1001.7
20260509113536 74 162 0.0 0.0 0.00 0.00 0.00 97 1001.8
20260509113435 74 162 0.0 0.0 0.00 0.00 0.00 97 1001.8
20260509113335 74 162 0.0 0.0 0.00 0.00 0.00 97 1001.8
20260509113236 74 162 0.0 0.0 0.00 0.00 0.00 97 1001.8
20260509113136 74 162 0.0 0.0 0.00 0.00 0.00 97 1001.8
20260509113035 74 162 0.0 0.0 0.00 0.00 0.00 97 1001.7
20260509112937 74 162 0.0 0.0 0.00 0.00 0.00 97 1001.6
20260509112835 74 162 0.0 0.0 0.00 0.00 0.00 97 1001.5
20260509112736 74 162 0.0 0.0 0.00 0.00 0.00 97 1001.5
20260509112636 74 162 0.0 0.0 0.00 0.00 0.00 97 1001.5
20260509112536 74 162 0.0 0.0 0.00 0.00 0.00 97 1001.4
20260509112435 74 162 0.0 0.0 0.00 0.00 0.00 97 1001.5
20260509112335 74 162 0.0 0.0 0.00 0.00 0.00 97 1001.5
20260509112236 74 162 0.0 0.0 0.00 0.00 0.00 97 1001.5
20260509112135 74 162 0.0 0.0 0.00 0.00 0.00 97 1001.5
20260509112036 74 162 0.0 0.0 0.00 0.00 0.00 97 1001.6
20260509111936 74 162 0.0 0.0 0.00 0.00 0.00 97 1001.5
20260509111835 74 162 0.0 0.0 0.00 0.00 0.00 97 1001.4
20260509111735 74 162 0.0 0.0 0.00 0.00 0.00 97 1001.4
20260509111635 74 161 0.0 0.0 0.00 0.00 0.00 97 1001.5
20260509111536 74 162 0.0 0.0 0.00 0.00 0.00 97 1001.4
20260509111435 74 162 0.0 0.0 0.00 0.00 0.00 97 1001.5
20260509111335 74 162 0.0 0.0 0.00 0.00 0.00 97 1001.4
20260509111236 74 162 0.0 0.0 0.00 0.00 0.00 97 1001.5
20260509111135 74 162 0.0 0.0 0.00 0.00 0.00 97 1001.5
20260509111035 74 162 0.0 0.0 0.00 0.00 0.00 97 1001.5
20260509110935 74 162 0.0 0.0 0.00 0.00 0.00 97 1001.5
20260509110836 74 161 0.0 0.0 0.00 0.00 0.00 97 1001.6
20260509110735 74 162 0.0 0.0 0.00 0.00 0.00 97 1001.6
20260509110636 74 161 0.0 0.0 0.00 0.00 0.00 97 1001.7
20260509110535 74 161 0.0 0.0 0.00 0.00 0.00 97 1001.7
20260509110435 74 162 0.0 0.0 0.00 0.00 0.00 97 1001.7
20260509110334 74 162 0.0 0.0 0.00 0.00 0.00 97 1001.7
20260509110235 74 161 0.0 0.0 0.00 0.00 0.00 97 1001.7
20260509110136 74 162 0.0 0.0 0.00 0.00 0.00 97 1001.8
20260509110037 74 162 0.0 0.0 0.00 0.00 0.00 97 1001.8
20260509105933 74 161 0.0 0.0 0.00 0.00 0.00 97 1001.8
20260509105834 74 162 0.0 0.0 0.00 0.00 0.00 97 1001.8
20260509105734 74 162 0.0 0.0 0.00 0.00 0.00 97 1001.7
20260509105635 74 162 0.0 0.0 0.00 0.00 0.00 97 1001.8
20260509105534 74 161 0.0 0.0 0.00 0.00 0.00 97 1001.7
20260509105437 74 162 0.0 0.0 0.00 0.00 0.00 97 1001.7
20260509105334 74 162 0.0 0.0 0.00 0.00 0.00 97 1001.7
20260509105234 74 162 0.0 0.0 0.00 0.00 0.00 97 1001.6
20260509105135 74 161 0.0 0.0 0.00 0.00 0.00 97 1001.6
20260509105035 74 162 0.0 0.0 0.00 0.00 0.00 97 1001.7
20260509104935 74 162 0.0 0.0 0.00 0.00 0.00 97 1001.6
20260509104834 74 162 0.0 0.0 0.00 0.00 0.00 97 1001.7
20260509104735 74 162 0.0 0.0 0.00 0.00 0.00 97 1001.6
20260509104634 74 162 0.0 0.0 0.00 0.00 0.00 97 1001.6
20260509104534 74 162 0.0 0.0 0.00 0.00 0.00 97 1001.6
20260509104435 74 162 0.0 0.0 0.00 0.00 0.00 97 1001.5
20260509104335 75 162 0.0 0.0 0.00 0.00 0.00 97 1001.4
20260509104234 74 164 0.0 0.0 0.00 0.00 0.00 97 1001.4
20260509104134 74 164 0.0 0.0 0.00 0.00 0.00 97 1001.2
20260509104036 74 164 0.0 0.0 0.00 0.00 0.00 97 1001.1
20260509103935 74 164 0.0 0.0 0.00 0.00 0.00 97 1001.1
20260509103835 74 164 0.0 0.0 0.00 0.00 0.00 97 1001.1
20260509103735 75 164 0.0 0.0 0.00 0.00 0.00 97 1001.1
20260509103634 74 164 0.0 0.0 0.00 0.00 0.00 97 1001.1
20260509103535 74 162 0.0 0.0 0.00 0.00 0.00 97 1001.0
20260509103434 75 164 0.0 0.0 0.00 0.00 0.00 97 1001.0
20260509103334 75 164 0.0 0.0 0.00 0.00 0.00 97 1001.1
20260509103235 74 164 0.0 0.0 0.00 0.00 0.00 97 1001.2
20260509103134 74 162 0.0 0.0 0.00 0.00 0.00 97 1001.1
20260509103035 74 162 0.0 0.0 0.00 0.00 0.00 97 1001.2
20260509102934 74 162 0.0 0.0 0.00 0.00 0.00 97 1001.1
20260509102835 74 162 0.0 0.0 0.00 0.00 0.00 97 1001.2
20260509102735 74 162 0.0 0.0 0.00 0.00 0.00 97 1001.2
20260509102635 74 162 0.0 0.0 0.00 0.00 0.00 97 1001.2
20260509102534 74 162 0.0 0.0 0.00 0.00 0.00 97 1001.2
20260509102434 74 162 0.0 0.0 0.00 0.00 0.00 97 1001.3
20260509102335 74 162 0.0 0.0 0.00 0.00 0.00 97 1001.3
20260509102234 74 162 0.0 0.0 0.00 0.00 0.00 97 1001.3
20260509102134 74 162 0.0 0.0 0.00 0.00 0.00 97 1001.3
20260509102035 74 162 0.0 0.0 0.00 0.00 0.00 97 1001.3
20260509101934 74 162 0.0 0.0 0.00 0.00 0.00 97 1001.3
20260509101834 74 162 0.0 0.0 0.00 0.00 0.00 97 1001.3
20260509101733 74 162 0.0 0.0 0.00 0.00 0.00 97 1001.3
20260509101635 74 162 0.0 0.0 0.00 0.00 0.00 97 1001.3
20260509101534 74 162 0.0 0.0 0.00 0.00 0.00 97 1001.3
20260509101433 74 162 0.0 0.0 0.00 0.00 0.00 97 1001.2
20260509101334 74 161 0.0 0.0 0.00 0.00 0.00 97 1001.2
20260509101233 74 161 0.0 0.0 0.00 0.00 0.00 97 1001.2
20260509101133 74 161 0.0 0.0 0.00 0.00 0.00 97 1001.1
20260509101034 74 161 0.0 0.0 0.00 0.00 0.00 97 1001.1
20260509100935 74 161 0.0 0.0 0.00 0.00 0.00 97 1001.0
20260509100834 74 159 0.0 0.0 0.00 0.00 0.00 97 1001.0
20260509100733 74 159 0.0 1.0 0.00 0.00 0.00 97 1000.9
20260509100634 74 161 0.0 1.0 0.00 0.00 0.00 97 1000.9
20260509100534 74 161 0.0 1.0 0.00 0.00 0.00 97 1001.0
20260509100433 74 159 0.0 1.0 0.00 0.00 0.00 97 1001.0
20260509100334 74 159 0.0 1.0 0.00 0.00 0.00 97 1000.9
20260509100234 74 159 0.0 1.0 0.00 0.00 0.00 97 1000.9
20260509100133 74 159 0.0 1.0 0.00 0.00 0.00 97 1000.9
20260509100034 74 159 0.0 1.0 0.00 0.00 0.00 97 1000.8
20260509095935 74 159 0.0 1.0 0.00 0.00 0.00 97 1000.8
20260509095833 74 159 0.0 1.0 0.00 0.00 0.00 97 1000.8
20260509095733 74 159 0.0 1.0 0.00 0.00 0.00 97 1000.7
20260509095633 74 159 0.0 1.0 0.00 0.00 0.00 97 1000.7
20260509095534 74 159 0.0 1.0 0.00 0.00 0.00 97 1000.6
20260509095433 74 159 0.0 1.0 0.00 0.00 0.00 97 1000.6
20260509095333 74 159 0.0 1.0 0.00 0.00 0.00 97 1000.6
20260509095235 74 159 0.0 1.0 0.00 0.00 0.00 97 1000.5
20260509095133 74 159 0.0 1.0 0.00 0.00 0.00 97 1000.5
20260509095033 74 159 0.0 1.0 0.00 0.00 0.00 97 1000.6
20260509094933 74 161 0.0 1.0 0.00 0.00 0.00 97 1000.6
20260509094834 74 161 0.0 1.0 0.00 0.00 0.00 97 1000.6
20260509094733 74 159 0.0 0.0 0.00 0.00 0.00 97 1000.5
20260509094633 74 159 0.0 0.0 0.00 0.00 0.00 97 1000.5
20260509094535 74 161 0.0 1.0 0.00 0.00 0.00 97 1000.6
20260509094433 74 161 0.0 2.0 0.00 0.00 0.00 97 1000.5
20260509094334 74 161 0.0 3.0 0.00 0.00 0.00 97 1000.5
20260509094235 74 162 0.0 3.0 0.00 0.00 0.00 97 1000.5
20260509094133 74 162 0.0 5.0 0.00 0.00 0.00 97 1000.5
20260509094033 74 162 0.0 5.0 0.00 0.00 0.00 97 1000.5
20260509093933 74 162 0.0 5.0 0.00 0.00 0.00 97 1000.5
20260509093834 74 162 0.0 5.0 0.00 0.00 0.00 97 1000.6
20260509093733 74 162 0.0 5.0 0.00 0.00 0.00 97 1000.4
20260509093634 74 162 0.0 5.0 0.00 0.00 0.00 97 1000.4
20260509093532 74 162 1.0 5.0 0.00 0.00 0.00 97 1000.4
20260509093434 74 162 2.0 5.0 0.00 0.00 0.00 97 1000.4
20260509093333 74 162 2.0 5.0 0.00 0.00 0.00 97 1000.5
20260509093233 74 162 3.0 5.0 0.00 0.00 0.00 97 1000.6
20260509093133 74 164 2.0 5.0 0.00 0.00 0.00 97 1000.6
20260509093033 74 164 2.0 5.0 0.00 0.00 0.00 97 1000.6
20260509092932 74 164 2.0 5.0 0.00 0.00 0.00 97 1000.7
20260509092831 74 164 2.0 5.0 0.00 0.00 0.00 97 1000.8
20260509092732 74 164 2.0 5.0 0.00 0.00 0.00 97 1000.7
20260509092631 74 164 2.0 5.0 0.00 0.00 0.00 97 1000.8
20260509092531 74 164 2.0 5.0 0.00 0.00 0.00 97 1000.8
20260509092431 74 164 3.0 5.0 0.00 0.00 0.00 97 1000.8
20260509092332 74 164 4.0 5.0 0.00 0.00 0.00 97 1000.8
20260509092231 74 164 4.0 5.0 0.00 0.00 0.00 97 1000.8
20260509092132 74 161 4.0 5.0 0.00 0.00 0.00 97 1000.8
20260509092031 74 155 4.0 5.0 0.00 0.00 0.00 97 1000.8
20260509091931 74 159 4.0 5.0 0.00 0.00 0.00 97 1000.9
20260509091831 74 159 3.0 5.0 0.00 0.00 0.00 97 1000.9
20260509091731 74 162 3.0 5.0 0.00 0.00 0.00 97 1000.9
20260509091632 74 161 4.0 5.0 0.00 0.00 0.00 97 1001.0
20260509091530 74 159 4.0 5.0 0.00 0.00 0.00 97 1000.9
20260509091432 74 159 4.0 5.0 0.00 0.00 0.00 97 1000.8
20260509091332 74 155 4.0 5.0 0.00 0.00 0.00 97 1000.9
20260509091231 74 155 3.0 4.0 0.00 0.00 0.00 97 1000.9
20260509091131 74 154 3.0 4.0 0.00 0.00 0.00 97 1000.9
20260509091031 74 154 2.0 3.0 0.00 0.00 0.00 97 1000.9
20260509090931 74 154 1.0 3.0 0.00 0.00 0.00 97 1000.9
20260509090831 74 154 0.0 0.0 0.00 0.00 0.00 97 1000.9
20260509090732 74 154 0.0 0.0 0.00 0.00 0.00 97 1000.9
20260509090632 74 154 0.0 0.0 0.00 0.00 0.00 97 1000.9
20260509090531 74 154 0.0 0.0 0.00 0.00 0.00 97 1001.0
20260509090429 74 154 0.0 0.0 0.00 0.00 0.00 97 1001.0
20260509090328 74 154 0.0 0.0 0.00 0.00 0.00 97 1001.0
20260509090226 74 154 0.0 0.0 0.00 0.00 0.00 97 1001.0
20260509090125 74 154 0.0 0.0 0.00 0.00 0.00 97 1001.0
20260509090023 74 154 0.0 0.0 0.00 0.00 0.00 97 1001.1
20260509085922 74 154 0.0 0.0 0.00 0.00 0.00 97 1001.0
20260509085820 74 154 0.0 0.0 0.00 0.00 0.00 97 1001.1
20260509085719 74 154 0.0 0.0 0.00 0.00 0.00 97 1001.1
20260509085617 74 154 0.0 0.0 0.00 0.00 0.00 97 1001.2
20260509085515 74 154 0.0 0.0 0.00 0.00 0.00 97 1001.1
20260509085414 74 154 0.0 0.0 0.00 0.00 0.00 97 1001.1
20260509085309 74 155 0.0 0.0 0.00 0.00 0.00 97 1001.1
20260509085209 74 154 0.0 0.0 0.00 0.00 0.00 97 1001.2
20260509085106 74 154 0.0 0.0 0.00 0.00 0.00 97 1001.2
20260509085004 74 154 0.0 0.0 0.00 0.00 0.00 97 1001.2
20260509084902 74 154 0.0 0.0 0.00 0.00 0.00 97 1001.2
20260509084802 74 154 0.0 0.0 0.00 0.00 0.00 97 1001.3
20260509084703 74 154 0.0 0.0 0.00 0.00 0.00 97 1001.2
20260509084602 74 154 0.0 0.0 0.00 0.00 0.00 97 1001.3
20260509084503 74 154 0.0 0.0 0.00 0.00 0.00 97 1001.2
20260509084402 74 154 0.0 0.0 0.00 0.00 0.00 97 1001.3
20260509084302 74 154 0.0 0.0 0.00 0.00 0.00 97 1001.3
20260509084202 74 154 0.0 0.0 0.00 0.00 0.00 97 1001.3
20260509084102 74 154 0.0 0.0 0.00 0.00 0.00 97 1001.2
20260509084004 74 154 0.0 0.0 0.00 0.00 0.00 97 1001.2
20260509083903 74 154 0.0 0.0 0.00 0.00 0.00 97 1001.2
20260509083802 74 154 0.0 0.0 0.00 0.00 0.00 97 1001.3
20260509083702 74 154 0.0 0.0 0.00 0.00 0.00 97 1001.3
20260509083602 74 154 0.0 0.0 0.00 0.00 0.00 97 1001.3
20260509083503 74 154 0.0 0.0 0.00 0.00 0.00 97 1001.3
20260509083402 74 154 0.0 0.0 0.00 0.00 0.00 97 1001.3
20260509083304 74 154 0.0 0.0 0.00 0.00 0.00 97 1001.3
20260509083202 74 154 0.0 0.0 0.00 0.00 0.00 97 1001.3
20260509083103 74 154 0.0 0.0 0.00 0.00 0.00 97 1001.3
20260509083004 74 154 0.0 0.0 0.00 0.00 0.00 97 1001.4
20260509082902 74 154 0.0 0.0 0.00 0.00 0.00 97 1001.3
20260509082801 74 154 0.0 0.0 0.00 0.00 0.00 97 1001.3
20260509082702 74 154 0.0 0.0 0.00 0.00 0.00 97 1001.3
20260509082603 74 154 0.0 0.0 0.00 0.00 0.00 97 1001.3
20260509082501 74 154 0.0 0.0 0.00 0.00 0.00 97 1001.3
20260509082400 74 155 0.0 2.0 0.00 0.00 0.00 97 1001.3
20260509082258 74 155 0.0 2.0 0.00 0.00 0.00 97 1001.3
20260509082157 74 154 0.0 2.0 0.00 0.00 0.00 97 1001.3
20260509082055 74 154 0.0 3.0 0.00 0.00 0.00 97 1001.3
20260509081954 74 154 0.0 3.0 0.00 0.00 0.00 97 1001.3
20260509081851 74 157 0.0 3.0 0.00 0.00 0.00 97 1001.3
20260509081751 74 157 0.0 3.0 0.00 0.00 0.00 97 1001.3
20260509081649 74 157 0.0 3.0 0.00 0.00 0.00 97 1001.3
20260509081547 74 157 0.0 3.0 0.00 0.00 0.00 97 1001.2
20260509081445 74 157 1.0 3.0 0.00 0.00 0.00 97 1001.3
20260509081344 74 157 1.0 4.0 0.00 0.00 0.00 97 1001.2
20260509081243 74 157 2.0 4.0 0.00 0.00 0.00 97 1001.2
20260509081140 74 157 1.0 4.0 0.00 0.00 0.00 97 1001.2
20260509081040 74 155 1.0 4.0 0.00 0.00 0.00 97 1001.2
20260509080935 74 155 1.0 4.0 0.00 0.00 0.00 97 1001.2
20260509080834 74 155 2.0 4.0 0.00 0.00 0.00 97 1001.1
20260509080732 74 155 2.0 4.0 0.00 0.00 0.00 97 1001.1
20260509080632 74 155 2.0 4.0 0.00 0.00 0.00 97 1001.1
20260509080532 74 155 3.0 4.0 0.00 0.00 0.00 97 1001.1
20260509080433 74 155 3.0 4.0 0.00 0.00 0.00 97 1001.2
20260509080331 74 155 2.0 4.0 0.00 0.00 0.00 97 1001.0
20260509080230 74 142 2.0 4.0 0.00 0.00 0.00 97 1001.0
20260509080130 74 142 2.0 4.0 0.00 0.00 0.00 97 1001.0
20260509080031 74 142 3.0 4.0 0.00 0.00 0.00 97 1001.0
20260509075924 74 140 3.0 4.0 0.00 0.00 0.00 97 1001.0
20260509075822 74 137 2.0 4.0 0.00 0.00 0.00 97 1001.0
20260509075720 74 137 2.0 5.0 0.00 0.00 0.00 97 1001.1
20260509075620 74 135 2.0 5.0 0.00 0.00 0.00 97 1001.0
20260509075518 74 135 2.0 5.0 0.00 0.00 0.00 97 1001.0
20260509075416 74 134 2.0 5.0 0.00 0.00 0.00 97 1001.0
20260509075314 74 135 2.0 5.0 0.00 0.00 0.00 97 1001.0
20260509075213 74 135 2.0 5.0 0.00 0.00 0.00 97 1001.0
20260509075111 74 135 2.0 5.0 0.00 0.00 0.00 97 1001.0
20260509075011 74 134 2.0 5.0 0.00 0.00 0.00 97 1001.0
20260509074909 74 134 3.0 5.0 0.00 0.00 0.00 97 1001.0
20260509074808 74 131 4.0 5.0 0.00 0.00 0.00 97 1001.0
20260509074706 74 131 3.0 5.0 0.00 0.00 0.00 97 1001.0
20260509074604 74 142 2.0 5.0 0.00 0.00 0.00 97 1001.0
20260509074504 74 144 2.0 5.0 0.00 0.00 0.00 97 1001.0
20260509074403 74 144 3.0 5.0 0.00 0.00 0.00 97 1001.1
20260509074303 74 142 3.0 5.0 0.00 0.00 0.00 97 1001.0
20260509074203 74 145 2.0 5.0 0.00 0.00 0.00 97 1001.1
20260509074102 74 145 2.0 5.0 0.00 0.00 0.00 97 1001.1
20260509074003 74 144 2.0 5.0 0.00 0.00 0.00 97 1001.1
20260509073904 74 144 3.0 5.0 0.00 0.00 0.00 97 1001.2
20260509073802 74 148 3.0 5.0 0.00 0.00 0.00 97 1001.3
20260509073704 74 148 3.0 5.0 0.00 0.00 0.00 97 1001.2
20260509073602 74 149 2.0 5.0 0.00 0.00 0.00 97 1001.2
20260509073504 74 149 3.0 5.0 0.00 0.00 0.00 97 1001.2
20260509073403 74 147 4.0 5.0 0.00 0.00 0.00 97 1001.2
20260509073303 74 154 3.0 5.0 0.00 0.00 0.00 97 1001.2
20260509073204 74 144 3.0 5.0 0.00 0.00 0.00 97 1001.1
20260509073102 74 142 3.0 5.0 0.00 0.00 0.00 97 1001.1
20260509073003 74 141 2.0 5.0 0.00 0.00 0.00 97 1001.1
20260509072902 74 140 2.0 5.0 0.00 0.00 0.00 97 1001.1
20260509072804 74 140 3.0 5.0 0.00 0.00 0.00 97 1001.0
20260509072702 74 138 3.0 5.0 0.00 0.00 0.00 97 1001.1
20260509072602 74 137 3.0 5.0 0.00 0.00 0.00 97 1001.1
20260509072504 74 135 3.0 6.0 0.00 0.00 0.00 97 1001.1
20260509072402 74 147 4.0 6.0 0.00 0.00 0.00 97 1001.1
20260509072306 74 148 4.0 6.0 0.00 0.00 0.00 97 1001.0
20260509072202 74 141 3.0 6.0 0.00 0.00 0.00 97 1000.9
20260509072103 74 135 3.0 6.0 0.00 0.00 0.00 97 1000.9
20260509072003 74 133 4.0 6.0 0.00 0.00 0.00 97 1000.9
20260509071902 74 125 4.0 6.0 0.00 0.00 0.00 97 1000.9
20260509071803 74 152 4.0 6.0 0.00 0.00 0.00 97 1001.0
20260509071702 74 155 4.0 6.0 0.00 0.00 0.00 97 1001.0
20260509071601 74 130 3.0 6.0 0.00 0.00 0.00 97 1001.0
20260509071452 74 141 3.0 5.0 0.00 0.00 0.00 97 1000.8
20260509071351 74 141 4.0 7.0 0.00 0.00 0.00 97 1000.9
20260509071249 74 135 4.0 7.0 0.00 0.00 0.00 97 1000.8
20260509071150 74 151 3.0 7.0 0.00 0.00 0.00 97 1000.8
20260509071046 74 140 3.0 7.0 0.00 0.00 0.00 97 1000.9
20260509070946 74 141 3.0 7.0 0.00 0.00 0.00 97 1000.9
20260509070844 74 142 4.0 7.0 0.00 0.00 0.00 97 1000.8
20260509070743 74 138 3.0 7.0 0.00 0.00 0.00 97 1000.8
20260509070641 74 137 3.0 7.0 0.00 0.00 0.00 97 1000.9
20260509070540 74 138 4.0 7.0 0.00 0.00 0.00 97 1000.8
20260509070439 74 123 4.0 7.0 0.00 0.00 0.00 97 1000.8
20260509070337 74 128 3.0 6.0 0.00 0.00 0.00 97 1000.7
20260509070235 74 127 4.0 6.0 0.00 0.00 0.00 97 1000.9
20260509070133 74 125 3.0 6.0 0.00 0.00 0.00 97 1000.8
20260509070034 74 147 3.0 6.0 0.00 0.00 0.00 97 1000.8
20260509065944 74 147 4.0 9.0 0.00 0.00 0.00 97 1000.8
20260509065937 74 147 4.0 9.0 0.00 0.00 0.00 97 1000.7
20260509065917 74 151 4.0 9.0 0.00 0.00 0.00 97 1000.7
20260509065856 74 147 4.0 9.0 0.00 0.00 0.00 97 1000.8
20260509065531 74 144 4.0 9.0 0.00 0.00 0.00 97 1000.8
20260509065431 74 149 4.0 9.0 0.00 0.00 0.00 97 1000.9
20260509065332 74 152 4.0 9.0 0.00 0.00 0.00 97 1000.8
20260509065231 74 155 4.0 9.0 0.00 0.00 0.00 97 1000.9
20260509065131 74 157 5.0 9.0 0.00 0.00 0.00 97 1001.0
20260509065031 74 157 5.0 9.0 0.00 0.00 0.00 97 1000.9
20260509064930 74 155 5.0 9.0 0.00 0.00 0.00 97 1000.8
20260509064832 74 144 4.0 9.0 0.00 0.00 0.00 97 1000.8
20260509064730 74 152 5.0 9.0 0.00 0.00 0.00 97 1000.9
20260509064632 74 161 6.0 9.0 0.00 0.00 0.00 97 1000.9
20260509064531 74 145 6.0 9.0 0.00 0.00 0.00 97 1000.8
20260509064431 74 155 6.0 7.0 0.00 0.00 0.00 97 1000.9
20260509064331 74 159 6.0 7.0 0.00 0.00 0.00 97 1000.8
20260509064231 74 142 6.0 7.0 0.00 0.00 0.00 97 1001.0
20260509064131 74 149 5.0 7.0 0.00 0.00 0.00 97 1001.0
20260509064031 74 171 5.0 7.0 0.00 0.00 0.00 97 1001.1
20260509063932 74 157 5.0 7.0 0.00 0.00 0.00 97 1001.0
20260509063831 74 154 6.0 7.0 0.00 0.00 0.00 97 1001.1
20260509063732 74 147 5.0 7.0 0.00 0.00 0.00 97 1001.1
20260509063633 74 158 4.0 5.0 0.00 0.00 0.00 97 1001.1
20260509063531 73 149 4.0 5.0 0.00 0.00 0.00 97 1001.2
20260509063431 73 158 4.0 6.0 0.00 0.00 0.00 97 1001.2
20260509063331 73 158 4.0 6.0 0.00 0.00 0.00 97 1001.2
20260509063232 73 166 4.0 6.0 0.00 0.00 0.00 97 1001.2
20260509063132 73 164 4.0 9.0 0.00 0.00 0.00 97 1001.2
20260509063031 73 158 4.0 9.0 0.00 0.00 0.00 97 1001.2
20260509062933 73 158 4.0 9.0 0.00 0.00 0.00 97 1001.3
20260509062831 73 168 4.0 9.0 0.00 0.00 0.00 97 1001.3
20260509062731 73 171 4.0 9.0 0.00 0.00 0.00 96 1001.2
20260509062632 73 149 3.0 9.0 0.00 0.00 0.00 96 1001.2
20260509062531 73 144 3.0 9.0 0.00 0.00 0.00 96 1001.3
20260509062430 73 148 4.0 9.0 0.00 0.00 0.00 96 1001.1
20260509062331 73 144 5.0 9.0 0.00 0.00 0.00 96 1001.2
20260509062232 73 152 6.0 9.0 0.00 0.00 0.00 96 1001.1
20260509062131 73 155 6.0 9.0 0.00 0.00 0.00 96 1001.1
20260509062030 73 161 6.0 9.0 0.00 0.00 0.00 96 1001.1
20260509061932 73 155 6.0 9.0 0.00 0.00 0.00 96 1001.2
20260509061831 73 168 6.0 9.0 0.00 0.00 0.00 96 1001.2
20260509061731 73 161 6.0 9.0 0.00 0.00 0.00 96 1001.2
20260509061631 73 162 6.0 9.0 0.00 0.00 0.00 96 1001.2
20260509061532 73 164 6.0 9.0 0.00 0.00 0.00 96 1001.2
20260509061431 73 149 5.0 6.0 0.00 0.00 0.00 96 1001.2
20260509061331 73 166 5.0 6.0 0.00 0.00 0.00 96 1001.2
20260509061232 73 145 5.0 6.0 0.00 0.00 0.00 96 1001.2
20260509061131 73 135 5.0 6.0 0.00 0.00 0.00 96 1001.2
20260509061032 73 159 5.0 6.0 0.00 0.00 0.00 96 1001.3
20260509060931 73 141 5.0 7.0 0.00 0.00 0.00 96 1001.2
20260509060831 73 144 5.0 7.0 0.00 0.00 0.00 96 1001.4
20260509060731 73 155 4.0 7.0 0.00 0.00 0.00 96 1001.5
20260509060631 73 165 4.0 7.0 0.00 0.00 0.00 96 1001.5
20260509060532 73 158 4.0 7.0 0.00 0.00 0.00 96 1001.3
20260509060432 73 164 4.0 7.0 0.00 0.00 0.00 96 1001.4
20260509060331 73 164 3.0 7.0 0.00 0.00 0.00 96 1001.4
20260509060233 73 151 4.0 7.0 0.00 0.00 0.00 96 1001.4
20260509060131 73 148 5.0 7.0 0.00 0.00 0.00 96 1001.4
20260509060030 73 155 4.0 7.0 0.00 0.00 0.00 96 1001.5
20260509055928 73 138 4.0 7.0 0.00 0.00 0.00 96 1001.5
20260509055828 73 149 4.0 6.0 0.00 0.00 0.00 96 1001.5
20260509055728 73 164 4.0 6.0 0.00 0.00 0.00 96 1001.5
20260509055629 73 144 4.0 6.0 0.00 0.00 0.00 96 1001.6
20260509055527 73 137 3.0 6.0 0.00 0.00 0.00 96 1001.5
20260509055428 73 145 4.0 6.0 0.00 0.00 0.00 96 1001.5
20260509055329 73 140 5.0 6.0 0.00 0.00 0.00 96 1001.6
20260509055228 73 142 4.0 6.0 0.00 0.00 0.00 96 1001.7
20260509055128 73 148 4.0 6.0 0.00 0.00 0.00 96 1001.6
20260509055028 73 147 4.0 6.0 0.00 0.00 0.00 96 1001.6
20260509054930 73 141 4.0 6.0 0.00 0.00 0.00 96 1001.6
20260509054828 73 145 4.0 6.0 0.00 0.00 0.00 96 1001.6
20260509054729 73 154 5.0 6.0 0.00 0.00 0.00 96 1001.5
20260509054628 73 152 4.0 6.0 0.00 0.00 0.00 96 1001.6
20260509054528 73 155 3.0 5.0 0.00 0.00 0.00 96 1001.6
20260509054428 73 148 3.0 5.0 0.00 0.00 0.00 96 1001.6
20260509054328 73 162 3.0 5.0 0.00 0.00 0.00 96 1001.6
20260509054229 73 162 3.0 5.0 0.00 0.00 0.00 96 1001.7
20260509054127 73 162 3.0 5.0 0.00 0.00 0.00 96 1001.6
20260509054028 73 162 2.0 5.0 0.00 0.00 0.00 96 1001.6
20260509053927 73 162 3.0 5.0 0.00 0.00 0.00 96 1001.6
20260509053828 73 162 3.0 6.0 0.00 0.00 0.00 96 1001.6
20260509053727 73 144 3.0 7.0 0.00 0.00 0.00 96 1001.6
20260509053628 73 144 3.0 7.0 0.00 0.00 0.00 96 1001.6
20260509053529 73 140 3.0 7.0 0.00 0.00 0.00 96 1001.6
20260509053427 73 138 3.0 7.0 0.00 0.00 0.00 96 1001.5
20260509053327 73 141 2.0 7.0 0.00 0.00 0.00 96 1001.6
20260509053228 73 140 2.0 7.0 0.00 0.00 0.00 96 1001.6
20260509053127 73 140 3.0 7.0 0.00 0.00 0.00 96 1001.6
20260509053027 73 140 4.0 7.0 0.00 0.00 0.00 96 1001.6
20260509052928 73 138 5.0 7.0 0.00 0.00 0.00 96 1001.6
20260509052828 73 147 6.0 7.0 0.00 0.00 0.00 96 1001.6
20260509052727 73 141 4.0 7.0 0.00 0.00 0.00 96 1001.6
20260509052627 73 157 3.0 9.0 0.00 0.00 0.00 96 1001.6
20260509052528 73 161 3.0 9.0 0.00 0.00 0.00 96 1001.6
20260509052427 73 157 4.0 9.0 0.00 0.00 0.00 96 1001.6
20260509052327 73 157 4.0 9.0 0.00 0.00 0.00 96 1001.5
20260509052227 73 147 3.0 9.0 0.00 0.00 0.00 96 1001.6
20260509052129 73 131 3.0 9.0 0.00 0.00 0.00 96 1001.6
20260509052027 73 130 4.0 9.0 0.00 0.00 0.00 96 1001.6
20260509051927 73 147 4.0 9.0 0.00 0.00 0.00 96 1001.6
20260509051828 73 154 5.0 9.0 0.00 0.00 0.00 96 1001.6
20260509051726 73 137 6.0 9.0 0.00 0.00 0.00 96 1001.6
20260509051626 73 157 4.0 7.0 0.00 0.00 0.00 96 1001.5
20260509051524 73 151 5.0 7.0 0.00 0.00 0.00 96 1001.5
20260509051422 73 154 5.0 7.0 0.00 0.00 0.00 96 1001.5
20260509051321 73 162 4.0 7.0 0.00 0.00 0.00 96 1001.5
20260509051219 73 157 4.0 7.0 0.00 0.00 0.00 96 1001.4
20260509051118 73 149 5.0 7.0 0.00 0.00 0.00 96 1001.5
20260509051017 73 172 5.0 6.0 0.00 0.00 0.00 96 1001.5
20260509050915 73 138 5.0 6.0 0.00 0.00 0.00 96 1001.5
20260509050813 73 138 4.0 6.0 0.00 0.00 0.00 96 1001.4
20260509050712 73 145 4.0 6.0 0.00 0.00 0.00 96 1001.5
20260509050610 73 161 4.0 6.0 0.00 0.00 0.00 96 1001.5
20260509050510 73 158 3.0 6.0 0.00 0.00 0.00 96 1001.5
20260509050408 73 145 3.0 7.0 0.00 0.00 0.00 96 1001.5
20260509050306 73 151 4.0 7.0 0.00 0.00 0.00 96 1001.5
20260509050204 73 148 4.0 7.0 0.00 0.00 0.00 96 1001.5
20260509050105 73 147 4.0 7.0 0.00 0.00 0.00 96 1001.5
20260509050003 73 145 3.0 7.0 0.00 0.00 0.00 96 1001.6
20260509045902 73 137 3.0 7.0 0.00 0.00 0.00 96 1001.6
20260509045803 73 140 3.0 7.0 0.00 0.00 0.00 96 1001.6
20260509045702 73 144 4.0 7.0 0.00 0.00 0.00 96 1001.6
20260509045601 73 142 4.0 7.0 0.00 0.00 0.00 96 1001.6
20260509045503 73 176 2.0 5.0 0.00 0.00 0.00 96 1001.7
20260509045403 73 151 2.0 5.0 0.00 0.00 0.00 96 1001.6
20260509045306 73 151 2.0 5.0 0.00 0.00 0.00 96 1001.7
20260509045202 73 149 3.0 6.0 0.00 0.00 0.00 96 1001.7
20260509045104 73 133 4.0 6.0 0.00 0.00 0.00 96 1001.7
20260509044934 73 133 4.0 6.0 0.00 0.00 0.00 96 1001.6
20260509044832 73 133 4.0 6.0 0.00 0.00 0.00 96 1001.7
20260509044731 73 133 4.0 6.0 0.00 0.00 0.00 96 1001.7
20260509044632 73 133 4.0 6.0 0.00 0.00 0.00 96 1001.8
20260509044531 73 127 4.0 6.0 0.00 0.00 0.00 96 1001.7
20260509044431 73 157 4.0 6.0 0.00 0.00 0.00 96 1001.7
20260509044332 73 133 4.0 6.0 0.00 0.00 0.00 96 1001.7
20260509044232 73 147 3.0 7.0 0.00 0.00 0.00 96 1001.7
20260509044131 73 147 3.0 7.0 0.00 0.00 0.00 95 1001.6
20260509044033 73 162 3.0 7.0 0.00 0.00 0.00 95 1001.6
20260509043931 73 162 4.0 7.0 0.00 0.00 0.00 95 1001.7
20260509043830 73 149 4.0 7.0 0.00 0.00 0.00 95 1001.7
20260509043731 73 154 4.0 7.0 0.00 0.00 0.00 95 1001.7
20260509043632 73 144 4.0 7.0 0.00 0.00 0.00 95 1001.6
20260509043533 73 134 4.0 7.0 0.00 0.00 0.00 95 1001.7
20260509043431 73 151 5.0 7.0 0.00 0.00 0.00 95 1001.6
20260509043331 73 151 5.0 7.0 0.00 0.00 0.00 95 1001.6
20260509043231 73 157 5.0 7.0 0.00 0.00 0.00 95 1001.6
20260509043131 73 148 5.0 7.0 0.00 0.00 0.00 95 1001.5
20260509043031 73 152 5.0 7.0 0.00 0.00 0.00 95 1001.7
20260509042933 73 168 5.0 7.0 0.00 0.00 0.00 95 1001.7
20260509042831 73 154 4.0 7.0 0.00 0.00 0.00 95 1001.5
20260509042731 73 154 4.0 7.0 0.00 0.00 0.00 95 1001.5
20260509042632 73 155 5.0 9.0 0.00 0.00 0.00 95 1001.6
20260509042532 73 141 4.0 9.0 0.00 0.00 0.00 95 1001.6
20260509042430 73 125 4.0 9.0 0.00 0.00 0.00 95 1001.6
20260509042332 73 120 4.0 9.0 0.00 0.00 0.00 95 1001.6
20260509042232 74 127 4.0 9.0 0.00 0.00 0.00 95 1001.7
20260509042131 74 130 4.0 10.0 0.00 0.00 0.00 95 1001.6
20260509042031 74 135 4.0 10.0 0.00 0.00 0.00 95 1001.8
20260509041932 73 151 5.0 10.0 0.00 0.00 0.00 95 1001.8
20260509041830 74 128 5.0 10.0 0.00 0.00 0.00 95 1001.8
20260509041728 73 152 5.0 10.0 0.00 0.00 0.00 95 1001.9
20260509041628 74 125 5.0 10.0 0.00 0.00 0.00 95 1001.8
20260509041527 74 135 4.0 10.0 0.00 0.00 0.00 95 1001.8
20260509041425 74 138 6.0 10.0 0.00 0.00 0.00 95 1001.8
20260509041326 74 123 7.0 10.0 0.00 0.00 0.00 95 1001.8
20260509041227 74 125 6.0 11.0 0.00 0.00 0.00 95 1001.8
20260509041126 74 149 4.0 11.0 0.00 0.00 0.00 95 1001.8
20260509041025 74 140 5.0 11.0 0.00 0.00 0.00 95 1001.8
20260509040926 74 125 6.0 11.0 0.00 0.00 0.00 95 1001.7
20260509040826 74 137 6.0 11.0 0.00 0.00 0.00 95 1001.7
20260509040727 74 137 7.0 11.0 0.00 0.00 0.00 95 1001.7
20260509040625 74 124 7.0 11.0 0.00 0.00 0.00 95 1001.6
20260509040526 74 128 6.0 11.0 0.00 0.00 0.00 95 1001.6
20260509040426 74 133 6.0 11.0 0.00 0.00 0.00 95 1001.5
20260509040325 74 135 7.0 11.0 0.00 0.00 0.00 95 1001.5
20260509040226 74 135 6.0 9.0 0.00 0.00 0.00 95 1001.5
20260509040125 74 134 5.0 9.0 0.00 0.00 0.00 95 1001.5
20260509040025 74 127 3.0 9.0 0.00 0.00 0.00 95 1001.5
20260509035925 74 124 3.0 9.0 0.00 0.00 0.00 95 1001.4
20260509035827 74 125 4.0 9.0 0.00 0.00 0.00 95 1001.4
20260509035725 74 133 5.0 9.0 0.00 0.00 0.00 95 1001.4
20260509035626 74 152 4.0 9.0 0.00 0.00 0.00 95 1001.4
20260509035526 74 140 5.0 9.0 0.00 0.00 0.00 95 1001.3
20260509035425 74 151 5.0 9.0 0.00 0.00 0.00 95 1001.6
20260509035326 74 134 5.0 9.0 0.00 0.00 0.00 95 1001.5
20260509035225 74 135 5.0 9.0 0.00 0.00 0.00 95 1001.4
20260509035126 74 127 4.0 7.0 0.00 0.00 0.00 95 1001.5
20260509035025 74 135 5.0 9.0 0.00 0.00 0.00 95 1001.4
20260509034925 74 134 5.0 9.0 0.00 0.00 0.00 95 1001.5
20260509034826 74 133 4.0 9.0 0.00 0.00 0.00 95 1001.4
20260509034724 74 125 4.0 9.0 0.00 0.00 0.00 95 1001.4
20260509034627 74 137 3.0 9.0 0.00 0.00 0.00 95 1001.4
20260509034525 74 151 4.0 9.0 0.00 0.00 0.00 95 1001.3
20260509034426 74 149 5.0 9.0 0.00 0.00 0.00 95 1001.3
20260509034325 74 134 4.0 10.0 0.00 0.00 0.00 95 1001.2
20260509034224 74 148 5.0 10.0 0.00 0.00 0.00 95 1001.3
20260509034126 74 134 6.0 10.0 0.00 0.00 0.00 95 1001.2
20260509034025 74 148 6.0 10.0 0.00 0.00 0.00 95 1001.2
20260509033924 74 182 5.0 10.0 0.00 0.00 0.00 95 1001.2
20260509033825 74 134 4.0 12.0 0.00 0.00 0.00 95 1001.2
20260509033726 74 144 4.0 12.0 0.00 0.00 0.00 95 1001.2
20260509033625 74 130 5.0 12.0 0.00 0.00 0.00 95 1001.1
20260509033524 74 131 6.0 12.0 0.00 0.00 0.00 95 1001.0
20260509033424 74 131 6.0 12.0 0.00 0.00 0.00 95 1001.0
20260509033324 74 138 6.0 12.0 0.00 0.00 0.00 95 1001.0
20260509033225 74 144 6.0 12.0 0.00 0.00 0.00 95 1001.1
20260509033125 74 157 6.0 12.0 0.00 0.00 0.00 95 1001.1
20260509033025 74 135 7.0 12.0 0.00 0.00 0.00 95 1001.1
20260509032925 74 133 7.0 12.0 0.00 0.00 0.00 95 1001.1
20260509032824 74 147 6.0 11.0 0.00 0.00 0.00 95 1001.1
20260509032726 74 145 6.0 11.0 0.00 0.00 0.00 95 1001.1
20260509032625 74 148 5.0 11.0 0.00 0.00 0.00 95 1001.1
20260509032525 74 125 5.0 11.0 0.00 0.00 0.00 95 1001.1
20260509032424 74 144 5.0 11.0 0.00 0.00 0.00 95 1001.0
20260509032325 74 176 4.0 11.0 0.00 0.00 0.00 95 1001.1
20260509032225 74 141 4.0 11.0 0.00 0.00 0.00 95 1001.0
20260509032124 74 140 4.0 11.0 0.00 0.00 0.00 95 1001.1
20260509032026 74 137 6.0 11.0 0.00 0.00 0.00 95 1001.1
20260509031924 74 155 6.0 11.0 0.00 0.00 0.00 95 1001.2
20260509031824 74 147 6.0 9.0 0.00 0.00 0.00 95 1001.1
20260509031725 74 128 6.0 9.0 0.00 0.00 0.00 95 1001.1
20260509031625 74 138 5.0 9.0 0.00 0.00 0.00 95 1001.1
20260509031525 74 140 4.0 9.0 0.00 0.00 0.00 94 1001.1
20260509031424 74 138 4.0 9.0 0.00 0.00 0.00 94 1001.1
20260509031325 74 131 4.0 9.0 0.00 0.00 0.00 94 1001.2
20260509031224 74 145 3.0 9.0 0.00 0.00 0.00 94 1001.2
20260509031124 74 145 3.0 9.0 0.00 0.00 0.00 94 1001.2
20260509031024 74 144 5.0 9.0 0.00 0.00 0.00 94 1001.2
20260509030924 74 133 5.0 9.0 0.00 0.00 0.00 94 1001.3
20260509030824 74 130 5.0 9.0 0.00 0.00 0.00 94 1001.3
20260509030724 74 137 4.0 9.0 0.00 0.00 0.00 94 1001.3
20260509030625 74 159 4.0 9.0 0.00 0.00 0.00 94 1001.2
20260509030524 74 138 5.0 9.0 0.00 0.00 0.00 94 1001.3
20260509030424 74 138 5.0 9.0 0.00 0.00 0.00 94 1001.2
20260509030325 74 147 6.0 9.0 0.00 0.00 0.00 94 1001.3
20260509030224 74 141 5.0 9.0 0.00 0.00 0.00 94 1001.3
20260509030124 74 125 4.0 7.0 0.00 0.00 0.00 94 1001.3
20260509030024 74 175 4.0 7.0 0.00 0.00 0.00 94 1001.3
20260509025925 74 151 4.0 7.0 0.00 0.00 0.00 94 1001.2
20260509025824 74 142 4.0 7.0 0.00 0.00 0.00 94 1001.2
20260509025724 74 131 5.0 9.0 0.00 0.00 0.00 94 1001.1
20260509025625 74 134 5.0 9.0 0.00 0.00 0.00 94 1001.1
20260509025524 74 144 4.0 9.0 0.00 0.00 0.00 94 1001.2
20260509025425 74 165 3.0 9.0 0.00 0.00 0.00 94 1001.1
20260509025324 74 158 4.0 9.0 0.00 0.00 0.00 94 1001.1
20260509025225 74 141 5.0 9.0 0.00 0.00 0.00 94 1001.0
20260509025124 74 149 5.0 9.0 0.00 0.00 0.00 94 1001.1
20260509025024 74 157 5.0 9.0 0.00 0.00 0.00 94 1001.1
20260509024923 74 154 6.0 9.0 0.00 0.00 0.00 94 1001.0
20260509024824 74 144 6.0 9.0 0.00 0.00 0.00 94 1001.0
20260509024724 74 140 5.0 9.0 0.00 0.00 0.00 94 1001.0
20260509024623 74 138 5.0 9.0 0.00 0.00 0.00 94 1001.0
20260509024525 74 0 5.0 9.0 0.00 0.00 0.00 94 1000.9
20260509024423 74 166 6.0 9.0 0.00 0.00 0.00 94 1001.1
20260509024325 74 164 6.0 9.0 0.00 0.00 0.00 94 1001.0
20260509024224 74 161 6.0 9.0 0.00 0.00 0.00 94 1001.0
20260509024123 74 142 5.0 9.0 0.00 0.00 0.00 94 1001.0
20260509024023 74 152 4.0 7.0 0.00 0.00 0.00 94 1000.9
20260509023924 74 158 4.0 7.0 0.00 0.00 0.00 94 1000.9
20260509023824 74 157 4.0 7.0 0.00 0.00 0.00 94 1000.8
20260509023723 74 134 4.0 7.0 0.00 0.00 0.00 94 1000.7
20260509023623 74 128 4.0 10.0 0.00 0.00 0.00 94 1000.7
20260509023525 74 134 4.0 10.0 0.00 0.00 0.00 94 1000.7
20260509023424 74 128 4.0 10.0 0.00 0.00 0.00 94 1000.8
20260509023323 74 138 3.0 10.0 0.00 0.00 0.00 94 1000.9
20260509023224 74 133 4.0 10.0 0.00 0.00 0.00 94 1000.8
20260509023125 74 137 4.0 10.0 0.00 0.00 0.00 94 1000.9
20260509023023 74 158 4.0 10.0 0.00 0.00 0.00 94 1000.8
20260509022924 74 137 5.0 10.0 0.00 0.00 0.00 94 1000.8
20260509022823 74 142 6.0 10.0 0.00 0.00 0.00 94 1000.9
20260509022723 74 148 6.0 10.0 0.00 0.00 0.00 94 1000.9
20260509022623 74 137 4.0 10.0 0.00 0.00 0.00 94 1000.8
20260509022523 74 141 5.0 10.0 0.00 0.00 0.00 94 1000.8
20260509022424 74 138 6.0 10.0 0.00 0.00 0.00 94 1000.8
20260509022323 74 149 6.0 10.0 0.00 0.00 0.00 94 1000.9
20260509022223 74 140 7.0 10.0 0.00 0.00 0.00 94 1000.9
20260509022124 74 127 6.0 10.0 0.00 0.00 0.00 94 1000.8
20260509022023 74 133 5.0 9.0 0.00 0.00 0.00 94 1000.8
20260509021923 74 152 5.0 9.0 0.00 0.00 0.00 94 1000.8
20260509021824 74 166 6.0 9.0 0.00 0.00 0.00 94 1000.8
20260509021723 74 134 6.0 9.0 0.00 0.00 0.00 94 1000.7
20260509021623 74 149 5.0 7.0 0.00 0.00 0.00 94 1000.7
20260509021523 74 137 3.0 6.0 0.00 0.00 0.00 94 1000.6
20260509021423 74 142 3.0 6.0 0.00 0.00 0.00 94 1000.5
20260509021323 74 145 4.0 6.0 0.00 0.00 0.00 94 1000.5
20260509021223 74 124 4.0 6.0 0.00 0.00 0.00 94 1000.5
20260509021124 74 133 3.0 7.0 0.00 0.00 0.00 94 1000.4
20260509021028 74 134 3.0 7.0 0.00 0.00 0.00 94 1000.5
20260509020922 74 125 3.0 7.0 0.00 0.00 0.00 94 1000.5
20260509020823 74 124 3.0 7.0 0.00 0.00 0.00 94 1000.5
20260509020724 74 120 2.0 9.0 0.00 0.00 0.00 94 1000.5
20260509020622 74 121 2.0 9.0 0.00 0.00 0.00 94 1000.5
20260509020520 74 117 3.0 9.0 0.00 0.00 0.00 94 1000.6
20260509020419 74 131 4.0 9.0 0.00 0.00 0.00 93 1000.6
20260509020317 74 125 5.0 9.0 0.00 0.00 0.00 93 1000.5
20260509020216 74 133 5.0 9.0 0.00 0.00 0.00 93 1000.5
20260509020116 74 134 5.0 9.0 0.00 0.00 0.00 93 1000.6
20260509020014 74 113 5.0 9.0 0.00 0.00 0.00 93 1000.6
20260509015912 74 138 6.0 9.0 0.00 0.00 0.00 93 1000.6
20260509015810 74 125 6.0 9.0 0.00 0.00 0.00 93 1000.6
20260509015708 74 121 6.0 9.0 0.00 0.00 0.00 93 1000.6
20260509015608 74 137 5.0 9.0 0.00 0.00 0.00 93 1000.6
20260509015506 74 121 5.0 9.0 0.00 0.00 0.00 93 1000.6
20260509015404 74 131 4.0 6.0 0.00 0.00 0.00 93 1000.4
20260509015306 74 123 3.0 9.0 0.00 0.00 0.00 93 1000.5
20260509015202 74 123 3.0 9.0 0.00 0.00 0.00 93 1000.4
20260509015102 74 118 2.0 9.0 0.00 0.00 0.00 93 1000.5
20260509015005 74 125 2.0 9.0 0.00 0.00 0.00 93 1000.5
20260509014902 74 131 2.0 9.0 0.00 0.00 0.00 93 1000.5
20260509014803 74 131 4.0 9.0 0.00 0.00 0.00 93 1000.6
20260509014702 74 134 5.0 9.0 0.00 0.00 0.00 93 1000.6
20260509014603 74 131 4.0 9.0 0.00 0.00 0.00 93 1000.6
20260509014502 74 130 5.0 9.0 0.00 0.00 0.00 93 1000.5
20260509014403 74 130 5.0 9.0 0.00 0.00 0.00 93 1000.5
20260509014303 74 131 3.0 7.0 0.00 0.00 0.00 93 1000.4
20260509014202 74 134 4.0 9.0 0.00 0.00 0.00 93 1000.5
20260509014102 74 134 5.0 9.0 0.00 0.00 0.00 93 1000.5
20260509014004 74 131 4.0 9.0 0.00 0.00 0.00 93 1000.5
20260509013902 74 124 3.0 9.0 0.00 0.00 0.00 93 1000.4
20260509013802 74 131 3.0 9.0 0.00 0.00 0.00 93 1000.4
20260509013702 74 133 4.0 9.0 0.00 0.00 0.00 93 1000.5
20260509013603 74 128 4.0 9.0 0.00 0.00 0.00 93 1000.4
20260509013502 74 128 5.0 10.0 0.00 0.00 0.00 93 1000.5
20260509013402 74 130 6.0 10.0 0.00 0.00 0.00 93 1000.5
20260509013303 74 135 7.0 10.0 0.00 0.00 0.00 93 1000.4
20260509013202 74 125 5.0 10.0 0.00 0.00 0.00 93 1000.5
20260509013102 74 131 4.0 10.0 0.00 0.00 0.00 93 1000.5
20260509013002 74 121 5.0 10.0 0.00 0.00 0.00 93 1000.6
20260509012903 74 140 4.0 10.0 0.00 0.00 0.00 93 1000.6
20260509012802 74 120 4.0 10.0 0.00 0.00 0.00 93 1000.6
20260509012702 74 133 6.0 10.0 0.00 0.00 0.00 93 1000.7
20260509012603 74 140 5.0 10.0 0.00 0.00 0.00 93 1000.7
20260509012502 74 120 4.0 9.0 0.00 0.00 0.00 93 1000.7
20260509012402 74 124 6.0 9.0 0.00 0.00 0.00 93 1000.7
20260509012307 74 133 5.0 9.0 0.00 0.00 0.00 93 1000.7
20260509012203 74 123 4.0 7.0 0.00 0.00 0.00 93 1000.7
20260509012102 74 128 4.0 7.0 0.00 0.00 0.00 93 1000.6
20260509012002 74 120 3.0 7.0 0.00 0.00 0.00 93 1000.6
20260509011903 74 120 4.0 7.0 0.00 0.00 0.00 93 1000.6
20260509011803 74 123 3.0 7.0 0.00 0.00 0.00 93 1000.6
20260509011702 74 131 3.0 7.0 0.00 0.00 0.00 93 1000.6
20260509011604 74 133 2.0 7.0 0.00 0.00 0.00 93 1000.6
20260509011503 74 134 4.0 7.0 0.00 0.00 0.00 93 1000.5
20260509011400 74 145 4.0 7.0 0.00 0.00 0.00 93 1000.6
20260509011300 74 149 3.0 7.0 0.00 0.00 0.00 93 1000.6
20260509011158 74 124 3.0 5.0 0.00 0.00 0.00 93 1000.6
20260509011056 74 123 2.0 6.0 0.00 0.00 0.00 93 1000.5
20260509010955 74 111 3.0 6.0 0.00 0.00 0.00 93 1000.5
20260509010853 74 111 3.0 6.0 0.00 0.00 0.00 92 1000.5
20260509010752 74 137 3.0 6.0 0.00 0.00 0.00 93 1000.4
20260509010650 74 106 2.0 6.0 0.00 0.00 0.00 93 1000.3
20260509010549 74 133 3.0 6.0 0.00 0.00 0.00 93 1000.3
20260509010447 74 133 3.0 6.0 0.00 0.00 0.00 93 1000.4
20260509010344 74 133 4.0 7.0 0.00 0.00 0.00 93 1000.4
20260509010244 74 131 3.0 7.0 0.00 0.00 0.00 93 1000.4
20260509010142 74 127 2.0 10.0 0.00 0.00 0.00 93 1000.4
20260509010042 74 90 3.0 10.0 0.00 0.00 0.00 93 1000.4
20260509005939 74 89 3.0 10.0 0.00 0.00 0.00 93 1000.5
20260509005839 74 131 3.0 10.0 0.00 0.00 0.00 93 1000.5
20260509005737 74 131 4.0 10.0 0.00 0.00 0.00 93 1000.4
20260509005635 74 133 4.0 10.0 0.00 0.00 0.00 93 1000.4
20260509005533 74 135 4.0 10.0 0.00 0.00 0.00 92 1000.4
20260509005432 74 137 5.0 10.0 0.00 0.00 0.00 92 1000.4
20260509005331 74 130 6.0 10.0 0.00 0.00 0.00 92 1000.3
20260509005231 74 120 7.0 10.0 0.00 0.00 0.00 92 1000.3
20260509005130 74 130 6.0 10.0 0.00 0.00 0.00 92 1000.3
20260509005031 74 144 6.0 10.0 0.00 0.00 0.00 92 1000.4
20260509004931 74 127 6.0 10.0 0.00 0.00 0.00 92 1000.4
20260509004831 74 141 5.0 10.0 0.00 0.00 0.00 92 1000.3
20260509004732 74 130 6.0 10.0 0.00 0.00 0.00 92 1000.3
20260509004632 74 134 5.0 10.0 0.00 0.00 0.00 92 1000.3
20260509004532 74 135 5.0 10.0 0.00 0.00 0.00 92 1000.2
20260509004433 74 123 6.0 10.0 0.00 0.00 0.00 92 1000.2
20260509004332 74 137 5.0 10.0 0.00 0.00 0.00 92 1000.2
20260509004231 74 121 4.0 10.0 0.00 0.00 0.00 92 1000.2
20260509004131 74 135 4.0 10.0 0.00 0.00 0.00 92 1000.2
20260509004032 74 137 5.0 10.0 0.00 0.00 0.00 92 1000.2
20260509003932 74 168 6.0 10.0 0.00 0.00 0.00 92 1000.2
20260509003831 74 154 6.0 10.0 0.00 0.00 0.00 92 1000.3
20260509003732 74 142 6.0 10.0 0.00 0.00 0.00 92 1000.2
20260509003630 74 131 6.0 11.0 0.00 0.00 0.00 92 1000.2
20260509003529 74 140 7.0 11.0 0.00 0.00 0.00 92 1000.2
20260509003427 74 113 7.0 11.0 0.00 0.00 0.00 92 1000.2
20260509003326 74 135 7.0 11.0 0.00 0.00 0.00 92 1000.2
20260509003224 75 140 7.0 11.0 0.00 0.00 0.00 91 1000.1
20260509003123 75 137 7.0 11.0 0.00 0.00 0.00 91 1000.2
20260509003021 75 124 6.0 11.0 0.00 0.00 0.00 91 1000.3
20260509002921 75 123 5.0 11.0 0.00 0.00 0.00 91 1000.2
20260509002820 75 114 7.0 11.0 0.00 0.00 0.00 91 1000.2
20260509002721 75 107 6.0 11.0 0.00 0.00 0.00 91 1000.1
20260509002621 75 152 6.0 11.0 0.00 0.00 0.00 91 1000.1
20260509002521 75 138 6.0 11.0 0.00 0.00 0.00 91 1000.1
20260509002420 75 124 6.0 11.0 0.00 0.00 0.00 91 1000.1
20260509002322 75 141 8.0 11.0 0.00 0.00 0.00 91 1000.0
20260509002220 75 116 6.0 10.0 0.00 0.00 0.00 91 1000.1
20260509002120 75 131 4.0 9.0 0.00 0.00 0.00 91 1000.1
20260509002020 75 99 5.0 9.0 0.00 0.00 0.00 91 1000.0
20260509001921 75 121 4.0 9.0 0.00 0.00 0.00 91 1000.1
20260509001820 75 130 3.0 9.0 0.00 0.00 0.00 91 1000.1
20260509001721 75 79 4.0 9.0 0.00 0.00 0.00 91 1000.1
20260509001621 75 107 4.0 9.0 0.00 0.00 0.00 91 1000.1
20260509001520 75 111 5.0 9.0 0.00 0.00 0.00 91 1000.1
20260509001421 75 118 6.0 9.0 0.00 0.00 0.00 91 1000.2
20260509001321 75 125 5.0 9.0 0.00 0.00 0.00 91 1000.1
20260509001220 75 134 5.0 10.0 0.00 0.00 0.00 91 1000.2
20260509001121 75 123 5.0 10.0 0.00 0.00 0.00 91 1000.1
20260509001021 75 111 3.0 10.0 0.00 0.00 0.00 90 1000.1
20260509000921 75 103 4.0 10.0 0.00 0.00 0.00 90 1000.1
20260509000820 75 125 4.0 10.0 0.00 0.00 0.00 90 1000.1
20260509000720 75 97 4.0 10.0 0.00 0.00 0.00 90 1000.1
20260509000621 75 130 5.0 10.0 0.00 0.00 0.00 90 1000.1
20260509000520 75 137 5.0 10.0 0.00 0.00 0.00 90 1000.3
20260509000420 75 137 5.0 10.0 0.00 0.00 0.00 90 1000.1
20260509000319 75 106 6.0 10.0 0.00 0.00 0.00 90 1000.3
20260509000221 75 134 6.0 10.0 0.00 0.00 0.00 90 1000.2
20260509000119 75 127 5.0 10.0 0.00 0.00 0.00 90 1000.3
20260509000021 75 165 4.0 9.0 0.00 0.00 0.00 90 1000.3
20260508235921 75 124 5.0 9.0 0.00 0.00 0.00 90 1000.3
20260508235820 76 142 4.0 9.0 0.00 0.00 0.00 90 1000.4
20260508235721 76 140 5.0 9.0 0.00 0.00 0.00 90 1000.4
20260508235620 76 137 6.0 9.0 0.00 0.00 0.00 90 1000.4
20260508235521 76 158 6.0 9.0 0.00 0.00 0.00 90 1000.5
20260508235419 76 169 4.0 9.0 0.00 0.00 0.00 90 1000.5
20260508235321 76 157 5.0 9.0 0.00 0.00 0.00 90 1000.5
20260508235220 76 134 5.0 9.0 0.00 0.00 0.00 90 1000.5
20260508235120 76 142 5.0 9.0 0.00 0.00 0.00 90 1000.5
20260508235019 76 138 4.0 9.0 0.00 0.00 0.00 90 1000.4
20260508234920 76 121 5.0 9.0 0.00 0.00 0.00 89 1000.5
20260508234821 76 149 6.0 9.0 0.00 0.00 0.00 89 1000.4
20260508234719 76 162 6.0 9.0 0.00 0.00 0.00 89 1000.4
20260508234620 76 192 7.0 9.0 0.00 0.00 0.00 89 1000.4
20260508234520 76 155 7.0 9.0 0.00 0.00 0.00 89 1000.4
20260508234421 76 131 5.0 9.0 0.00 0.00 0.00 89 1000.4
20260508234319 76 149 5.0 10.0 0.00 0.00 0.00 89 1000.5
20260508234219 76 157 5.0 10.0 0.00 0.00 0.00 89 1000.5
20260508234119 76 145 5.0 10.0 0.00 0.00 0.00 89 1000.4
20260508234019 76 124 6.0 10.0 0.00 0.00 0.00 89 1000.5
20260508233919 76 149 6.0 10.0 0.00 0.00 0.00 89 1000.5
20260508233820 76 144 5.0 11.0 0.00 0.00 0.00 89 1000.5
20260508233721 76 148 5.0 11.0 0.00 0.00 0.00 89 1000.5
20260508233619 76 155 5.0 11.0 0.00 0.00 0.00 89 1000.5
20260508233519 76 134 5.0 11.0 0.00 0.00 0.00 89 1000.4
20260508233420 76 130 7.0 11.0 0.00 0.00 0.00 88 1000.4
20260508233319 76 125 7.0 11.0 0.00 0.00 0.00 88 1000.4
20260508233219 76 130 6.0 11.0 0.00 0.00 0.00 88 1000.4
20260508233120 76 127 6.0 11.0 0.00 0.00 0.00 88 1000.4
20260508233019 76 149 7.0 11.0 0.00 0.00 0.00 88 1000.3
20260508232919 76 125 7.0 11.0 0.00 0.00 0.00 88 1000.5
20260508232820 76 131 6.0 11.0 0.00 0.00 0.00 89 1000.4
20260508232719 76 133 5.0 11.0 0.00 0.00 0.00 88 1000.4
20260508232619 76 147 4.0 11.0 0.00 0.00 0.00 89 1000.4
20260508232519 76 117 5.0 11.0 0.00 0.00 0.00 88 1000.4
20260508232419 76 110 5.0 11.0 0.00 0.00 0.00 89 1000.4
20260508232319 76 137 5.0 11.0 0.00 0.00 0.00 88 1000.4
20260508232219 76 127 6.0 11.0 0.00 0.00 0.00 88 1000.4
20260508232120 76 128 6.0 11.0 0.00 0.00 0.00 88 1000.5
20260508232020 76 133 7.0 11.0 0.00 0.00 0.00 88 1000.4
20260508231920 76 135 7.0 12.0 0.00 0.00 0.00 88 1000.5
20260508231819 76 128 6.0 12.0 0.00 0.00 0.00 88 1000.4
20260508231720 76 127 6.0 12.0 0.00 0.00 0.00 88 1000.5
20260508231618 76 135 6.0 12.0 0.00 0.00 0.00 88 1000.6
20260508231521 76 154 6.0 12.0 0.00 0.00 0.00 88 1000.5
20260508231420 76 152 5.0 12.0 0.00 0.00 0.00 88 1000.5
20260508231319 76 127 6.0 12.0 0.00 0.00 0.00 88 1000.5
20260508231219 76 133 7.0 12.0 0.00 0.00 0.00 88 1000.5
20260508231119 76 123 8.0 12.0 0.00 0.00 0.00 88 1000.5
20260508231020 76 142 6.0 12.0 0.00 0.00 0.00 88 1000.4
20260508230919 77 162 4.0 10.0 0.00 0.00 0.00 88 1000.3
20260508230819 77 135 4.0 10.0 0.00 0.00 0.00 88 1000.4
20260508230719 76 135 5.0 10.0 0.00 0.00 0.00 88 1000.3
20260508230618 77 107 6.0 10.0 0.00 0.00 0.00 88 1000.3
20260508230519 77 128 6.0 10.0 0.00 0.00 0.00 87 1000.4
20260508230418 77 140 6.0 10.0 0.00 0.00 0.00 87 1000.5
20260508230320 77 123 6.0 10.0 0.00 0.00 0.00 87 1000.5
20260508230218 77 151 6.0 10.0 0.00 0.00 0.00 87 1000.5
20260508230118 77 155 5.0 10.0 0.00 0.00 0.00 87 1000.6
20260508230019 77 134 5.0 7.0 0.00 0.00 0.00 87 1000.6
20260508225919 77 141 5.0 7.0 0.00 0.00 0.00 87 1000.5
20260508225818 77 169 4.0 7.0 0.00 0.00 0.00 87 1000.6
20260508225718 77 141 4.0 7.0 0.00 0.00 0.00 87 1000.5
20260508225619 77 130 4.0 7.0 0.00 0.00 0.00 87 1000.4
20260508225519 77 86 3.0 7.0 0.00 0.00 0.00 87 1000.4
20260508225418 77 79 4.0 9.0 0.00 0.00 0.00 87 1000.4
20260508225320 77 134 4.0 10.0 0.00 0.00 0.00 87 1000.3
20260508225218 77 111 4.0 10.0 0.00 0.00 0.00 87 1000.3
20260508225119 77 135 4.0 10.0 0.00 0.00 0.00 87 1000.2
20260508225018 77 116 4.0 10.0 0.00 0.00 0.00 87 1000.2
20260508224919 77 124 4.0 10.0 0.00 0.00 0.00 87 1000.2
20260508224818 77 110 3.0 10.0 0.00 0.00 0.00 87 1000.2
20260508224718 77 96 4.0 10.0 0.00 0.00 0.00 87 1000.2
20260508224620 77 121 4.0 10.0 0.00 0.00 0.00 87 1000.2
20260508224518 77 109 6.0 10.0 0.00 0.00 0.00 87 1000.2
20260508224418 77 125 6.0 10.0 0.00 0.00 0.00 87 1000.3
20260508224318 77 90 4.0 10.0 0.00 0.00 0.00 87 1000.2
20260508224219 77 121 4.0 10.0 0.00 0.00 0.00 87 1000.3
20260508224118 77 131 6.0 10.0 0.00 0.00 0.00 87 1000.3
20260508224019 77 145 7.0 10.0 0.00 0.00 0.00 86 1000.4
20260508223919 77 140 6.0 10.0 0.00 0.00 0.00 87 1000.5
20260508223818 77 130 5.0 10.0 0.00 0.00 0.00 87 1000.4
20260508223719 77 152 4.0 10.0 0.00 0.00 0.00 87 1000.4
20260508223619 77 140 4.0 10.0 0.00 0.00 0.00 87 1000.4
20260508223520 77 144 4.0 10.0 0.00 0.00 0.00 87 1000.5
20260508223419 77 0 5.0 10.0 0.00 0.00 0.00 86 1000.4
20260508223318 77 0 6.0 10.0 0.00 0.00 0.00 86 1000.4
20260508223218 77 130 6.0 10.0 0.00 0.00 0.00 86 1000.4
20260508223118 77 118 5.0 10.0 0.00 0.00 0.00 86 1000.4
20260508223018 77 151 6.0 10.0 0.00 0.00 0.00 86 1000.5
20260508222919 77 147 6.0 10.0 0.00 0.00 0.00 86 1000.4
20260508222818 77 149 7.0 10.0 0.00 0.00 0.00 86 1000.5